AFR249 RPLL-LFPG

Flight info

Callsign AFR249
Flight time N/A
Altitude 34000
Route SIRCA2R/06 SIRCA L628 DODUS W3 AKOTA A583 SABNO DCT LEGOD DCT BEKOL/K0935S1040 A461 SHL W22 TEPID W24 OSNOV G586 QP B330 ELKAL W179 IGNAK/K0926S1070 W179 WFX/K0922S1040 W179 IDVEM/K0926S1100 W179 OMBON Y1 SADAN W186 KAMUD/K0900F380 L141 TISIB L163 SR N193 OGOLI T898 DARVA/N0484F380 B476 METKA L88 RASAM N199 EDATA/N0491F400 M11 REBLO DCT CRM DCT MAKOL DCT ORTIP DCT MOPUG DCT ARSIN DCT RENKA L610 STAUB/N0406F240 L610 MAMOR DCT ASPAT DCT VIBOM DCT IDOSA DCT TOLVU/N0483F410 DCT RAPOR DCT VEDUS
Aircraft A359/H-SDE2E3GHIJ3J4J5LM1ORWXY/LB1D1

Departure

Time N/A
Airport Ninoy Aquino International Airport (RPLL)

Arrival

Time 2026-05-05 05:31
Airport Charles de Gaulle International Airport (LFPG)
Time Latitude Longitude Altitude Speed Heading
2026-05-04 16:57 24.54234 112.20286 34178 ft 435 kts 275°
2026-05-04 16:58 24.55482 112.07130 34181 ft 434 kts 275°
2026-05-04 17:00 24.57331 111.87318 34177 ft 434 kts 275°
2026-05-04 17:01 24.58849 111.70854 34173 ft 434 kts 276°
2026-05-04 17:02 24.60054 111.57645 34172 ft 434 kts 275°
2026-05-04 17:03 24.60947 111.47773 34170 ft 434 kts 275°
2026-05-04 17:03 24.61838 111.37866 34161 ft 434 kts 275°
2026-05-04 17:04 24.63014 111.24660 34166 ft 434 kts 275°
2026-05-04 17:05 24.64143 111.11469 34163 ft 434 kts 275°
2026-05-04 17:06 24.64989 111.01556 34161 ft 434 kts 275°
2026-05-04 17:07 24.65735 110.92749 34159 ft 434 kts 275°
2026-05-04 17:07 24.66571 110.85031 34162 ft 435 kts 283°
2026-05-04 17:08 24.70813 110.76246 34154 ft 445 kts 307°
2026-05-04 17:09 24.75534 110.71724 34162 ft 456 kts 319°
2026-05-04 17:09 24.80936 110.67953 34151 ft 460 kts 322°
2026-05-04 17:10 24.94614 110.58875 34154 ft 459 kts 322°
2026-05-04 17:12 25.07951 110.49748 34158 ft 458 kts 322°
2026-05-04 17:13 25.21449 110.40488 34154 ft 457 kts 322°
2026-05-04 17:14 25.32249 110.33065 34151 ft 456 kts 322°
2026-05-04 17:15 25.40340 110.27495 34154 ft 456 kts 322°
2026-05-04 17:17 25.61464 110.12907 34163 ft 455 kts 321°
2026-05-04 17:18 25.72190 110.05471 34157 ft 455 kts 322°
2026-05-04 17:19 25.82920 109.98022 34170 ft 454 kts 321°
2026-05-04 17:20 25.93599 109.90593 34168 ft 454 kts 321°
2026-05-04 17:20 26.01621 109.85003 34164 ft 452 kts 321°
2026-05-04 17:21 26.12249 109.77579 34159 ft 451 kts 321°
2026-05-04 17:22 26.17555 109.73869 34158 ft 450 kts 321°
2026-05-04 17:23 26.28156 109.66439 34154 ft 449 kts 321°
2026-05-04 17:24 26.36103 109.60860 34149 ft 449 kts 321°
2026-05-04 17:25 26.46657 109.53435 34149 ft 448 kts 321°
2026-05-04 17:26 26.57156 109.46032 34151 ft 447 kts 321°
2026-05-04 17:27 26.70303 109.36741 34148 ft 446 kts 321°
2026-05-04 17:28 26.80755 109.29336 34148 ft 446 kts 321°
2026-05-04 17:29 26.96431 109.18199 34150 ft 444 kts 321°
2026-05-04 17:31 27.08622 109.09513 34154 ft 444 kts 321°
2026-05-04 17:32 27.21609 109.00232 34151 ft 443 kts 321°
2026-05-04 17:33 27.31991 108.92796 34154 ft 441 kts 321°
2026-05-04 17:34 27.42310 108.85388 34161 ft 440 kts 321°
2026-05-04 17:35 27.55194 108.76116 34159 ft 438 kts 321°
2026-05-04 17:36 27.60326 108.72414 34166 ft 438 kts 321°
2026-05-04 17:36 27.65454 108.68712 34159 ft 437 kts 321°
2026-05-04 17:37 27.70535 108.65041 34166 ft 436 kts 321°
2026-05-04 17:37 27.75648 108.61340 34160 ft 436 kts 321°
2026-05-04 17:38 27.80731 108.57657 34166 ft 436 kts 321°
2026-05-04 17:38 27.85866 108.53933 34164 ft 435 kts 321°
2026-05-04 17:39 27.93481 108.48403 34159 ft 435 kts 321°
2026-05-04 17:39 27.98584 108.44691 34157 ft 436 kts 321°
2026-05-04 17:40 28.03669 108.40989 34157 ft 435 kts 321°
2026-05-04 17:40 28.08765 108.37275 34154 ft 435 kts 321°
2026-05-04 17:41 28.13862 108.33555 34151 ft 435 kts 321°
2026-05-04 17:41 28.18922 108.29858 34154 ft 436 kts 321°
2026-05-04 17:42 28.24009 108.26137 34156 ft 436 kts 321°
2026-05-04 17:42 28.29109 108.22404 34147 ft 436 kts 321°
2026-05-04 17:43 28.34215 108.18662 34148 ft 437 kts 321°
2026-05-04 17:43 28.39322 108.14911 34153 ft 437 kts 321°
2026-05-04 17:44 28.44433 108.11154 34157 ft 437 kts 321°
2026-05-04 17:44 28.49546 108.07393 34156 ft 437 kts 321°
2026-05-04 17:45 28.54631 108.03647 34158 ft 438 kts 321°
2026-05-04 17:45 28.59753 107.99869 34160 ft 439 kts 321°
2026-05-04 17:46 28.64881 107.96083 34156 ft 439 kts 321°
2026-05-04 17:46 28.70002 107.92297 34158 ft 440 kts 321°
2026-05-04 17:47 28.75140 107.88493 34166 ft 440 kts 321°
2026-05-04 17:47 28.80286 107.84682 34163 ft 440 kts 321°
2026-05-04 17:48 28.85387 107.80899 34163 ft 440 kts 321°
2026-05-04 17:48 28.90524 107.77080 34158 ft 441 kts 321°
2026-05-04 17:49 28.95664 107.73256 34163 ft 440 kts 321°
2026-05-04 17:49 29.00801 107.69434 34158 ft 440 kts 321°
2026-05-04 17:50 29.05925 107.65615 34159 ft 440 kts 321°
2026-05-04 17:50 29.11023 107.61810 34155 ft 440 kts 321°
2026-05-04 17:51 29.16140 107.57989 34157 ft 439 kts 321°
2026-05-04 17:51 29.21264 107.54154 34154 ft 439 kts 321°
2026-05-04 17:52 29.26372 107.50328 34148 ft 439 kts 321°
2026-05-04 17:52 29.31491 107.46489 34141 ft 439 kts 322°
2026-05-04 17:53 29.36600 107.42653 34144 ft 438 kts 322°
2026-05-04 17:53 29.41705 107.38817 34141 ft 438 kts 322°
2026-05-04 17:54 29.46771 107.35003 34130 ft 438 kts 322°
2026-05-04 17:54 29.51869 107.31161 34129 ft 437 kts 322°
2026-05-04 17:55 29.56952 107.27326 34126 ft 437 kts 322°
2026-05-04 17:55 29.62041 107.23482 34117 ft 437 kts 322°
2026-05-04 17:56 29.67120 107.19640 34117 ft 437 kts 322°
2026-05-04 17:56 29.72176 107.15812 34108 ft 437 kts 322°
2026-05-04 17:57 29.77262 107.11956 34105 ft 437 kts 322°
2026-05-04 17:57 29.82338 107.08103 34115 ft 437 kts 322°
2026-05-04 17:58 29.87413 107.04245 34119 ft 437 kts 322°
2026-05-04 17:58 29.92495 107.00377 34107 ft 437 kts 322°
2026-05-04 17:59 29.97572 106.96508 34117 ft 437 kts 322°
2026-05-04 18:00 30.05180 106.90702 34113 ft 437 kts 322°
2026-05-04 18:00 30.10225 106.86846 34111 ft 437 kts 322°
2026-05-04 18:01 30.14473 106.83595 34113 ft 437 kts 322°
2026-05-04 18:01 30.20364 106.79080 34104 ft 437 kts 322°
2026-05-04 18:02 30.27966 106.73246 34103 ft 437 kts 323°
2026-05-04 18:02 30.33039 106.69348 34102 ft 437 kts 323°
2026-05-04 18:03 30.38104 106.65449 34096 ft 437 kts 323°
2026-05-04 18:03 30.43167 106.61547 34097 ft 437 kts 323°
2026-05-04 18:04 30.48233 106.57637 34093 ft 437 kts 323°
2026-05-04 18:05 30.55796 106.51793 34094 ft 437 kts 323°
2026-05-04 18:05 30.60862 106.47872 34087 ft 438 kts 323°
2026-05-04 18:06 30.68462 106.41981 34087 ft 438 kts 323°
2026-05-04 18:06 30.73541 106.38038 34087 ft 438 kts 323°
2026-05-04 18:07 30.78606 106.34100 34080 ft 438 kts 323°
2026-05-04 18:07 30.83648 106.30174 34081 ft 438 kts 323°
2026-05-04 18:08 30.88719 106.26221 34082 ft 439 kts 324°
2026-05-04 18:08 30.93790 106.22263 34078 ft 439 kts 324°
2026-05-04 18:09 31.03926 106.14335 34069 ft 438 kts 324°
2026-05-04 18:10 31.08992 106.10365 34071 ft 438 kts 324°
2026-05-04 18:10 31.14058 106.06390 34070 ft 438 kts 324°
2026-05-04 18:11 31.19092 106.02435 34067 ft 438 kts 324°
2026-05-04 18:11 31.24149 105.98457 34066 ft 438 kts 324°
2026-05-04 18:12 31.29208 105.94472 34067 ft 438 kts 324°
2026-05-04 18:12 31.34272 105.90477 34067 ft 438 kts 324°
2026-05-04 18:13 31.39326 105.86486 34062 ft 438 kts 324°
2026-05-04 18:14 31.46059 105.81159 34061 ft 438 kts 324°
2026-05-04 18:14 31.51933 105.76506 34063 ft 438 kts 325°
2026-05-04 18:15 31.61172 105.69171 34066 ft 438 kts 325°
2026-05-04 18:16 31.66216 105.65158 34059 ft 437 kts 325°
2026-05-04 18:16 31.71222 105.61171 34068 ft 437 kts 325°
2026-05-04 18:17 31.78759 105.55157 34065 ft 436 kts 325°
2026-05-04 18:18 31.86284 105.49142 34068 ft 436 kts 325°
2026-05-04 18:18 31.91303 105.45122 34073 ft 436 kts 325°
2026-05-04 18:19 31.98766 105.39137 34090 ft 434 kts 326°
2026-05-04 18:19 32.01276 105.37121 34228 ft 434 kts 326°
2026-05-04 18:19 32.03767 105.35119 34455 ft 432 kts 325°
2026-05-04 18:20 32.06251 105.33121 34696 ft 431 kts 325°
2026-05-04 18:20 32.08721 105.31134 34927 ft 429 kts 325°
2026-05-04 18:20 32.11195 105.29142 35121 ft 429 kts 325°
2026-05-04 18:20 32.13665 105.27153 35306 ft 429 kts 325°
2026-05-04 18:21 32.16099 105.25191 35476 ft 429 kts 324°
2026-05-04 18:21 32.18563 105.23202 35663 ft 428 kts 324°
2026-05-04 18:21 32.21020 105.21217 35823 ft 429 kts 324°
2026-05-04 18:21 32.23490 105.19221 35939 ft 429 kts 324°
2026-05-04 18:22 32.25954 105.17229 36064 ft 431 kts 324°
2026-05-04 18:22 32.28440 105.15218 36089 ft 434 kts 324°
2026-05-04 18:22 32.33436 105.11172 36092 ft 436 kts 324°
2026-05-04 18:23 32.38429 105.07122 36098 ft 434 kts 324°
2026-05-04 18:23 32.43387 105.03098 36101 ft 434 kts 324°
2026-05-04 18:24 32.48362 104.99052 36104 ft 433 kts 324°
2026-05-04 18:24 32.53334 104.95004 36102 ft 433 kts 324°
2026-05-04 18:25 32.58309 104.90946 36102 ft 434 kts 324°
2026-05-04 18:25 32.63285 104.86884 36110 ft 433 kts 324°
2026-05-04 18:26 32.68215 104.82852 36106 ft 433 kts 324°
2026-05-04 18:26 32.73167 104.78798 36104 ft 432 kts 325°
2026-05-04 18:27 32.78116 104.74740 36094 ft 432 kts 325°
2026-05-04 18:27 32.83069 104.70670 36092 ft 432 kts 325°
2026-05-04 18:28 32.88015 104.66601 36094 ft 432 kts 325°
2026-05-04 18:28 32.92973 104.62524 36101 ft 432 kts 325°
2026-05-04 18:29 32.97887 104.58474 36106 ft 432 kts 325°
2026-05-04 18:29 33.02816 104.54405 36087 ft 430 kts 325°
2026-05-04 18:30 33.10204 104.48291 36108 ft 431 kts 325°
2026-05-04 18:31 33.15132 104.44217 36091 ft 430 kts 326°
2026-05-04 18:31 33.20049 104.40139 36089 ft 430 kts 325°
2026-05-04 18:32 33.24950 104.36063 36092 ft 429 kts 325°
2026-05-04 18:32 33.29819 104.32011 36092 ft 429 kts 325°
2026-05-04 18:33 33.34483 104.27558 36096 ft 430 kts 316°
2026-05-04 18:33 33.38081 104.21828 36084 ft 433 kts 303°
2026-05-04 18:34 33.41004 104.15519 36083 ft 433 kts 302°
2026-05-04 18:34 33.43811 104.09151 36088 ft 431 kts 301°
2026-05-04 18:35 33.46613 104.02807 36079 ft 434 kts 301°
2026-05-04 18:35 33.49462 103.96401 36086 ft 435 kts 302°
2026-05-04 18:36 33.52306 103.90016 36063 ft 432 kts 302°
2026-05-04 18:36 33.55127 103.83679 36078 ft 434 kts 301°
2026-05-04 18:37 33.57969 103.77270 36070 ft 435 kts 301°
2026-05-04 18:37 33.60812 103.70857 36086 ft 435 kts 301°
2026-05-04 18:38 33.63642 103.64469 36066 ft 433 kts 302°
2026-05-04 18:38 33.66467 103.58069 36053 ft 434 kts 301°
2026-05-04 18:39 33.69291 103.51655 36060 ft 435 kts 301°
2026-05-04 18:39 33.72106 103.45260 36051 ft 435 kts 301°
2026-05-04 18:40 33.74930 103.38820 36051 ft 435 kts 301°
2026-05-04 18:40 33.77749 103.32380 36054 ft 436 kts 301°
2026-05-04 18:41 33.80582 103.25908 36050 ft 436 kts 301°
2026-05-04 18:41 33.83407 103.19444 36061 ft 438 kts 301°
2026-05-04 18:42 33.86235 103.12957 36052 ft 437 kts 300°
2026-05-04 18:42 33.89033 103.06518 36053 ft 437 kts 301°
2026-05-04 18:43 33.91855 103.00014 36056 ft 437 kts 300°
2026-05-04 18:43 33.94669 102.93518 36052 ft 437 kts 300°
2026-05-04 18:44 33.97482 102.87013 36070 ft 437 kts 300°
2026-05-04 18:44 34.00282 102.80529 36049 ft 437 kts 300°
2026-05-04 18:45 34.03088 102.74019 36065 ft 437 kts 300°
2026-05-04 18:45 34.05890 102.67496 36056 ft 437 kts 300°
2026-05-04 18:46 34.08677 102.61008 36064 ft 438 kts 300°
2026-05-04 18:46 34.11475 102.54478 36040 ft 437 kts 299°
2026-05-04 18:47 34.14273 102.47928 36063 ft 438 kts 299°
2026-05-04 18:47 34.17065 102.41395 36063 ft 438 kts 299°
2026-05-04 18:48 34.19860 102.34850 36065 ft 438 kts 300°
2026-05-04 18:48 34.22734 102.28342 36066 ft 439 kts 300°
2026-05-04 18:49 34.25630 102.21855 36069 ft 438 kts 300°
2026-05-04 18:49 34.28496 102.15394 36062 ft 439 kts 300°
2026-05-04 18:50 34.31368 102.08878 36062 ft 439 kts 300°
2026-05-04 18:50 34.34240 102.02354 36055 ft 439 kts 300°
2026-05-04 18:51 34.37115 101.95817 36056 ft 440 kts 299°
2026-05-04 18:51 34.39987 101.89267 36050 ft 440 kts 299°
2026-05-04 18:52 34.42858 101.82702 36044 ft 440 kts 299°
2026-05-04 18:52 34.45722 101.76144 36039 ft 440 kts 299°
2026-05-04 18:53 34.48566 101.69622 36044 ft 440 kts 299°
2026-05-04 18:53 34.51425 101.63048 36040 ft 440 kts 299°
2026-05-04 18:54 34.54286 101.56459 36041 ft 441 kts 299°
2026-05-04 18:54 34.57126 101.49908 36035 ft 441 kts 299°
2026-05-04 18:55 34.59981 101.43307 36037 ft 441 kts 299°
2026-05-04 18:55 34.64260 101.33393 36035 ft 442 kts 298°
2026-05-04 18:56 34.67110 101.26773 36032 ft 443 kts 298°
2026-05-04 18:56 34.69961 101.20134 36029 ft 442 kts 298°
2026-05-04 18:57 34.72782 101.13550 36028 ft 442 kts 298°
2026-05-04 18:57 34.75622 101.06915 36024 ft 443 kts 298°
2026-05-04 18:58 34.78466 101.00257 36021 ft 443 kts 298°
2026-05-04 18:58 34.81304 100.93598 36013 ft 443 kts 298°
2026-05-04 18:59 34.84135 100.86947 36013 ft 442 kts 298°
2026-05-04 18:59 34.86967 100.80275 36005 ft 443 kts 298°
2026-05-04 19:00 34.89789 100.73618 36000 ft 443 kts 298°
2026-05-04 19:00 34.92607 100.66945 36002 ft 443 kts 298°
2026-05-04 19:01 34.95430 100.60258 35993 ft 443 kts 298°
2026-05-04 19:01 34.98248 100.53575 35984 ft 443 kts 297°
2026-05-04 19:02 35.01041 100.46930 35983 ft 443 kts 297°
2026-05-04 19:02 35.03852 100.40230 35980 ft 444 kts 297°
2026-05-04 19:03 35.06662 100.33519 35974 ft 444 kts 297°
2026-05-04 19:03 35.08996 100.27938 35982 ft 444 kts 297°
2026-05-04 19:04 35.11798 100.21222 35978 ft 444 kts 297°
2026-05-04 19:04 35.14595 100.14504 35976 ft 444 kts 297°
2026-05-04 19:05 35.17392 100.07775 35973 ft 444 kts 297°
2026-05-04 19:05 35.20181 100.01047 35979 ft 444 kts 297°
2026-05-04 19:06 35.22971 99.94305 35981 ft 444 kts 297°
2026-05-04 19:06 35.25762 99.87548 35982 ft 445 kts 297°
2026-05-04 19:07 35.28551 99.80781 35980 ft 445 kts 297°
2026-05-04 19:07 35.31320 99.74042 35985 ft 445 kts 296°
2026-05-04 19:08 35.34031 99.67218 35988 ft 446 kts 295°
2026-05-04 19:08 35.36754 99.60377 35989 ft 446 kts 297°
2026-05-04 19:09 35.39573 99.53689 35992 ft 447 kts 297°
2026-05-04 19:09 35.42416 99.46896 35996 ft 448 kts 297°
2026-05-04 19:10 35.45214 99.40079 36002 ft 448 kts 296°
2026-05-04 19:10 35.47979 99.33273 36006 ft 448 kts 296°
2026-05-04 19:11 35.50760 99.26404 36010 ft 449 kts 296°
2026-05-04 19:11 35.53536 99.19536 36018 ft 449 kts 296°
2026-05-04 19:12 35.57698 99.09227 36015 ft 449 kts 296°
2026-05-04 19:13 35.60469 99.02339 36017 ft 449 kts 296°
2026-05-04 19:13 35.63236 98.95450 36015 ft 449 kts 296°
2026-05-04 19:14 35.65994 98.88571 36013 ft 448 kts 296°
2026-05-04 19:14 35.68734 98.81719 36005 ft 448 kts 296°
2026-05-04 19:15 35.71481 98.74837 36002 ft 448 kts 296°
2026-05-04 19:15 35.74230 98.67935 35992 ft 448 kts 296°
2026-05-04 19:16 35.76969 98.61041 35982 ft 448 kts 296°
2026-05-04 19:16 35.79243 98.55307 35973 ft 448 kts 296°
2026-05-04 19:17 35.82419 98.47279 35962 ft 448 kts 296°
2026-05-04 19:17 35.85145 98.40378 35949 ft 448 kts 296°
2026-05-04 19:18 35.87854 98.33507 35934 ft 448 kts 296°
2026-05-04 19:18 35.90570 98.26600 35921 ft 447 kts 296°
2026-05-04 19:19 35.93281 98.19687 35909 ft 447 kts 296°
2026-05-04 19:19 35.95989 98.12771 35887 ft 447 kts 296°
2026-05-04 19:20 35.98670 98.05905 35875 ft 446 kts 296°
2026-05-04 19:20 36.01360 97.99006 35852 ft 446 kts 296°
2026-05-04 19:21 36.04050 97.92093 35832 ft 446 kts 296°
2026-05-04 19:21 36.06734 97.85180 35817 ft 446 kts 296°
2026-05-04 19:22 36.09410 97.78272 35799 ft 446 kts 296°
2026-05-04 19:22 36.12084 97.71351 35788 ft 445 kts 296°
2026-05-04 19:23 36.14750 97.64441 35775 ft 445 kts 296°
2026-05-04 19:23 36.17442 97.57591 35768 ft 444 kts 297°
2026-05-04 19:24 36.20195 97.50832 35761 ft 444 kts 297°
2026-05-04 19:24 36.22983 97.43978 35754 ft 444 kts 297°
2026-05-04 19:25 36.25746 97.37124 35757 ft 444 kts 297°
2026-05-04 19:25 36.28492 97.30278 35756 ft 444 kts 297°
2026-05-04 19:26 36.31236 97.23422 35757 ft 444 kts 297°
2026-05-04 19:26 36.33977 97.16559 35759 ft 444 kts 297°
2026-05-04 19:27 36.36714 97.09692 35752 ft 444 kts 297°
2026-05-04 19:27 36.39433 97.02857 35755 ft 444 kts 297°
2026-05-04 19:28 36.42164 96.95977 35748 ft 444 kts 296°
2026-05-04 19:28 36.44892 96.89088 35752 ft 444 kts 296°
2026-05-04 19:29 36.47617 96.82193 35751 ft 444 kts 296°
2026-05-04 19:29 36.50336 96.75300 35748 ft 444 kts 296°
2026-05-04 19:30 36.53047 96.68411 35747 ft 444 kts 296°
2026-05-04 19:30 36.55760 96.61501 35743 ft 444 kts 296°
2026-05-04 19:31 36.58487 96.54601 35735 ft 444 kts 296°
2026-05-04 19:31 36.61245 96.47731 35737 ft 444 kts 296°
2026-05-04 19:32 36.63990 96.40885 35730 ft 444 kts 296°
2026-05-04 19:32 36.66742 96.33994 35727 ft 444 kts 296°
2026-05-04 19:33 36.69481 96.27109 35727 ft 444 kts 296°
2026-05-04 19:33 36.72220 96.20208 35721 ft 444 kts 295°
2026-05-04 19:34 36.74955 96.13306 35719 ft 444 kts 295°
2026-05-04 19:34 36.77671 96.06433 35717 ft 444 kts 295°
2026-05-04 19:35 36.80413 95.99537 35713 ft 444 kts 295°
2026-05-04 19:35 36.83165 95.92635 35710 ft 444 kts 295°
2026-05-04 19:36 36.85897 95.85764 35707 ft 444 kts 295°
2026-05-04 19:36 36.88638 95.78850 35707 ft 444 kts 295°
2026-05-04 19:37 36.91376 95.71928 35704 ft 444 kts 295°
2026-05-04 19:37 36.94111 95.64998 35698 ft 444 kts 295°
2026-05-04 19:38 36.96833 95.58085 35699 ft 445 kts 295°
2026-05-04 19:38 36.99104 95.52307 35701 ft 445 kts 295°
2026-05-04 19:39 37.02330 95.44205 35698 ft 445 kts 295°
2026-05-04 19:39 37.05154 95.37302 35699 ft 445 kts 295°
2026-05-04 19:40 37.07962 95.30426 35704 ft 446 kts 295°
2026-05-04 19:40 37.10771 95.23500 35706 ft 446 kts 295°
2026-05-04 19:41 37.13579 95.16550 35705 ft 447 kts 295°
2026-05-04 19:41 37.16384 95.09589 35707 ft 447 kts 295°
2026-05-04 19:42 37.19180 95.02636 35709 ft 447 kts 295°
2026-05-04 19:42 37.21984 94.95650 35712 ft 448 kts 294°
2026-05-04 19:43 37.24778 94.88671 35715 ft 448 kts 294°
2026-05-04 19:43 37.27555 94.81721 35718 ft 448 kts 294°
2026-05-04 19:44 37.30346 94.74719 35721 ft 448 kts 294°
2026-05-04 19:44 37.33134 94.67710 35723 ft 448 kts 294°
2026-05-04 19:45 37.35919 94.60693 35726 ft 448 kts 294°
2026-05-04 19:45 37.38682 94.53718 35729 ft 448 kts 294°
2026-05-04 19:46 37.41005 94.47838 35734 ft 448 kts 294°
2026-05-04 19:46 37.44223 94.39677 35734 ft 448 kts 294°
2026-05-04 19:47 37.46987 94.32650 35738 ft 448 kts 294°
2026-05-04 19:47 37.49748 94.25615 35741 ft 448 kts 294°
2026-05-04 19:48 37.52508 94.18567 35747 ft 448 kts 294°
2026-05-04 19:48 37.55258 94.11528 35752 ft 448 kts 294°
2026-05-04 19:49 37.58011 94.04465 35756 ft 448 kts 294°
2026-05-04 19:49 37.60752 93.97419 35761 ft 448 kts 294°
2026-05-04 19:50 37.63031 93.91545 35768 ft 447 kts 294°
2026-05-04 19:50 37.66204 93.83351 35775 ft 447 kts 294°
2026-05-04 19:51 37.68490 93.77434 35780 ft 447 kts 293°
2026-05-04 19:51 37.71199 93.70410 35782 ft 447 kts 293°
2026-05-04 19:52 37.73915 93.63351 35792 ft 447 kts 293°
2026-05-04 19:52 37.76634 93.56265 35790 ft 448 kts 293°
2026-05-04 19:53 37.79349 93.49175 35800 ft 448 kts 293°
2026-05-04 19:53 37.82054 93.42094 35796 ft 448 kts 293°
2026-05-04 19:54 37.84763 93.34987 35804 ft 448 kts 293°
2026-05-04 19:54 37.87473 93.27862 35808 ft 449 kts 293°
2026-05-04 19:55 37.90178 93.20733 35814 ft 449 kts 293°
2026-05-04 19:55 37.92867 93.13629 35818 ft 450 kts 293°
2026-05-04 19:56 37.95576 93.06455 35823 ft 451 kts 293°
2026-05-04 19:56 37.98282 92.99272 35830 ft 451 kts 293°
2026-05-04 19:57 38.00971 92.92119 35836 ft 452 kts 292°
2026-05-04 19:57 38.03690 92.84869 35839 ft 452 kts 292°
2026-05-04 19:58 38.06370 92.77706 35847 ft 452 kts 292°
2026-05-04 19:58 38.09061 92.70497 35848 ft 452 kts 292°
2026-05-04 19:59 38.11747 92.63285 35849 ft 451 kts 292°
2026-05-04 19:59 38.14423 92.56082 35853 ft 451 kts 292°
2026-05-04 20:00 38.17093 92.48873 35854 ft 450 kts 292°
2026-05-04 20:00 38.19407 92.41523 35857 ft 447 kts 287°
2026-05-04 20:01 38.21480 92.34074 35848 ft 446 kts 287°
2026-05-04 20:01 38.23590 92.26648 35868 ft 446 kts 287°
2026-05-04 20:02 38.25736 92.19291 35876 ft 446 kts 287°
2026-05-04 20:02 38.27908 92.11901 35856 ft 446 kts 287°
2026-05-04 20:03 38.30079 92.04495 35867 ft 446 kts 287°
2026-05-04 20:03 38.32244 91.97077 35862 ft 446 kts 287°
2026-05-04 20:04 38.34390 91.89699 35859 ft 446 kts 287°
2026-05-04 20:04 38.36543 91.82277 35876 ft 446 kts 286°
2026-05-04 20:05 38.38695 91.74836 35868 ft 447 kts 286°
2026-05-04 20:05 38.40847 91.67377 35876 ft 447 kts 286°
2026-05-04 20:06 38.42978 91.59967 35870 ft 447 kts 286°
2026-05-04 20:06 38.45116 91.52515 35873 ft 447 kts 286°
2026-05-04 20:07 38.47251 91.45052 35876 ft 447 kts 286°
2026-05-04 20:07 38.49379 91.37590 35884 ft 448 kts 286°
2026-05-04 20:08 38.51506 91.30113 35893 ft 448 kts 286°
2026-05-04 20:08 38.53625 91.22646 35898 ft 448 kts 285°
2026-05-04 20:09 38.55727 91.15211 35908 ft 448 kts 285°
2026-05-04 20:09 38.57843 91.07714 35919 ft 447 kts 285°
2026-05-04 20:10 38.59951 91.00219 35932 ft 447 kts 285°
2026-05-04 20:10 38.62051 90.92729 35943 ft 447 kts 285°
2026-05-04 20:11 38.64134 90.85284 35956 ft 447 kts 285°
2026-05-04 20:11 38.66224 90.77789 35965 ft 447 kts 285°
2026-05-04 20:12 38.68312 90.70282 35965 ft 448 kts 285°
2026-05-04 20:12 38.70568 90.62823 35972 ft 449 kts 288°
2026-05-04 20:13 38.73013 90.55440 35978 ft 450 kts 288°
2026-05-04 20:13 38.75439 90.48048 35978 ft 450 kts 288°
2026-05-04 20:14 38.77778 90.40775 35979 ft 450 kts 287°
2026-05-04 20:14 38.80148 90.33336 35977 ft 451 kts 287°
2026-05-04 20:15 38.82520 90.25886 35971 ft 451 kts 287°
2026-05-04 20:15 38.84879 90.18435 35963 ft 451 kts 287°
2026-05-04 20:16 38.87244 90.10951 35957 ft 452 kts 287°
2026-05-04 20:16 38.89589 90.03516 35948 ft 452 kts 287°
2026-05-04 20:17 38.91947 89.96024 35946 ft 452 kts 287°
2026-05-04 20:17 38.94296 89.88534 35933 ft 453 kts 287°
2026-05-04 20:18 38.96643 89.81035 35921 ft 452 kts 287°
2026-05-04 20:18 38.98983 89.73531 35916 ft 452 kts 287°
2026-05-04 20:19 39.01318 89.66027 35903 ft 453 kts 287°
2026-05-04 20:19 39.03645 89.58543 35892 ft 452 kts 286°
2026-05-04 20:20 39.05975 89.51020 35884 ft 452 kts 286°
2026-05-04 20:20 39.08300 89.43490 35872 ft 452 kts 286°
2026-05-04 20:21 39.10615 89.35969 35853 ft 452 kts 286°
2026-05-04 20:21 39.14078 89.24686 35837 ft 451 kts 286°
2026-05-04 20:22 39.16358 89.17230 35834 ft 450 kts 286°
2026-05-04 20:22 39.18651 89.09710 35826 ft 450 kts 286°
2026-05-04 20:23 39.20936 89.02195 35820 ft 450 kts 286°
2026-05-04 20:23 39.22831 88.95947 35812 ft 450 kts 286°
2026-05-04 20:24 39.25491 88.87155 35807 ft 450 kts 286°
2026-05-04 20:24 39.27759 88.79633 35804 ft 450 kts 285°
2026-05-04 20:25 39.30029 88.72089 35797 ft 450 kts 285°
2026-05-04 20:25 39.32281 88.64579 35802 ft 450 kts 285°
2026-05-04 20:26 39.34536 88.57038 35797 ft 451 kts 285°
2026-05-04 20:26 39.36791 88.49478 35795 ft 451 kts 285°
2026-05-04 20:27 39.39037 88.41925 35795 ft 451 kts 285°
2026-05-04 20:27 39.41288 88.34336 35793 ft 451 kts 285°
2026-05-04 20:28 39.43526 88.26766 35791 ft 450 kts 285°
2026-05-04 20:28 39.45759 88.19194 35790 ft 451 kts 285°
2026-05-04 20:29 39.47976 88.11653 35789 ft 451 kts 285°
2026-05-04 20:29 39.50202 88.04061 35789 ft 451 kts 285°
2026-05-04 20:30 39.52422 87.96468 35786 ft 451 kts 284°
2026-05-04 20:30 39.54642 87.88853 35788 ft 451 kts 284°
2026-05-04 20:31 39.56861 87.81222 35791 ft 452 kts 284°
2026-05-04 20:31 39.59072 87.73592 35791 ft 452 kts 284°
2026-05-04 20:32 39.61276 87.65966 35790 ft 452 kts 284°
2026-05-04 20:32 39.63465 87.58371 35789 ft 452 kts 284°
2026-05-04 20:33 39.65665 87.50714 35793 ft 453 kts 284°
2026-05-04 20:33 39.67856 87.43072 35797 ft 452 kts 284°
2026-05-04 20:34 39.70046 87.35407 35798 ft 452 kts 284°
2026-05-04 20:34 39.72225 87.27756 35797 ft 452 kts 284°
2026-05-04 20:35 39.74402 87.20090 35798 ft 451 kts 283°
2026-05-04 20:35 39.76569 87.12435 35801 ft 451 kts 283°
2026-05-04 20:36 39.78369 87.06066 35803 ft 451 kts 283°
2026-05-04 20:36 39.80873 86.97171 35810 ft 451 kts 283°
2026-05-04 20:37 39.83023 86.89509 35806 ft 450 kts 283°
2026-05-04 20:37 39.85165 86.81856 35805 ft 450 kts 283°
2026-05-04 20:38 39.87298 86.74215 35825 ft 449 kts 283°
2026-05-04 20:38 39.89065 86.67864 35812 ft 449 kts 283°
2026-05-04 20:39 39.91187 86.60214 35820 ft 448 kts 283°
2026-05-04 20:39 39.93300 86.52575 35826 ft 448 kts 283°
2026-05-04 20:40 39.95410 86.44922 35824 ft 448 kts 283°
2026-05-04 20:40 39.97517 86.37263 35828 ft 448 kts 283°
2026-05-04 20:41 39.99613 86.29620 35828 ft 448 kts 283°
2026-05-04 20:41 40.01697 86.21997 35834 ft 448 kts 283°
2026-05-04 20:42 40.03784 86.14338 35834 ft 448 kts 283°
2026-05-04 20:42 40.05870 86.06661 35839 ft 448 kts 283°
2026-05-04 20:43 40.07947 85.98994 35842 ft 448 kts 283°
2026-05-04 20:43 40.09771 85.91244 35842 ft 444 kts 279°
2026-05-04 20:44 40.11399 85.83459 35846 ft 444 kts 279°
2026-05-04 20:44 40.13054 85.75672 35846 ft 445 kts 279°
2026-05-04 20:45 40.14736 85.67942 35847 ft 445 kts 279°
2026-05-04 20:45 40.16440 85.60153 35848 ft 445 kts 279°
2026-05-04 20:46 40.18141 85.52359 35850 ft 445 kts 279°
2026-05-04 20:46 40.19830 85.44578 35852 ft 445 kts 279°
2026-05-04 20:47 40.21516 85.36781 35849 ft 445 kts 279°
2026-05-04 20:47 40.23188 85.29016 35850 ft 445 kts 279°
2026-05-04 20:48 40.24861 85.21219 35848 ft 445 kts 279°
2026-05-04 20:48 40.26530 85.13412 35855 ft 445 kts 279°
2026-05-04 20:49 40.28194 85.05604 35854 ft 445 kts 279°
2026-05-04 20:49 40.29852 84.97795 35850 ft 445 kts 279°
2026-05-04 20:50 40.31503 84.89991 35847 ft 445 kts 279°
2026-05-04 20:50 40.33149 84.82176 35850 ft 445 kts 279°
2026-05-04 20:51 40.34792 84.74350 35854 ft 445 kts 278°
2026-05-04 20:51 40.36420 84.66571 35850 ft 445 kts 278°
2026-05-04 20:52 40.38052 84.58736 35858 ft 445 kts 278°
2026-05-04 20:52 40.39684 84.50878 35855 ft 445 kts 278°
2026-05-04 20:53 40.41310 84.43017 35839 ft 446 kts 278°
2026-05-04 20:53 40.42919 84.35209 35849 ft 446 kts 278°
2026-05-04 20:54 40.44534 84.27344 35860 ft 446 kts 278°
2026-05-04 20:54 40.46142 84.19480 35850 ft 446 kts 278°
2026-05-04 20:55 40.47749 84.11593 35853 ft 447 kts 278°
2026-05-04 20:55 40.49350 84.03705 35852 ft 447 kts 278°
2026-05-04 20:56 40.50948 83.95804 35853 ft 447 kts 278°
2026-05-04 20:56 40.52563 83.87895 35854 ft 448 kts 279°
2026-05-04 20:57 40.54229 83.79989 35853 ft 449 kts 279°
2026-05-04 20:57 40.55888 83.72108 35855 ft 450 kts 279°
2026-05-04 20:58 40.57543 83.64175 35856 ft 450 kts 279°
2026-05-04 20:58 40.59191 83.56226 35856 ft 451 kts 279°
2026-05-04 20:59 40.60834 83.48267 35855 ft 451 kts 279°
2026-05-04 20:59 40.62477 83.40287 35856 ft 451 kts 279°
2026-05-04 21:00 40.64112 83.32308 35858 ft 452 kts 279°
2026-05-04 21:00 40.65744 83.24313 35854 ft 452 kts 279°
2026-05-04 21:01 40.67363 83.16351 35858 ft 452 kts 279°
2026-05-04 21:01 40.68984 83.08350 35857 ft 453 kts 279°
2026-05-04 21:02 40.70610 83.00294 35858 ft 453 kts 279°
2026-05-04 21:02 40.72222 82.92275 35857 ft 453 kts 279°
2026-05-04 21:03 40.73823 82.84278 35863 ft 454 kts 280°
2026-05-04 21:03 40.75430 82.76220 35864 ft 454 kts 280°
2026-05-04 21:04 40.77032 82.68156 35866 ft 455 kts 280°
2026-05-04 21:04 40.78633 82.60066 35869 ft 455 kts 280°
2026-05-04 21:05 40.80220 82.52010 35869 ft 456 kts 280°
2026-05-04 21:05 40.81816 82.43881 35867 ft 457 kts 280°
2026-05-04 21:06 40.83409 82.35730 35869 ft 458 kts 280°
2026-05-04 21:06 40.84998 82.27571 35869 ft 459 kts 281°
2026-05-04 21:07 40.86582 82.19396 35869 ft 460 kts 281°
2026-05-04 21:07 40.88157 82.11241 35866 ft 460 kts 281°
2026-05-04 21:08 40.89735 82.03033 35870 ft 461 kts 281°
2026-05-04 21:08 40.91312 81.94794 35869 ft 462 kts 281°
2026-05-04 21:09 40.92884 81.86552 35869 ft 463 kts 281°
2026-05-04 21:09 40.94455 81.78275 35867 ft 464 kts 281°
2026-05-04 21:10 40.96014 81.70032 35869 ft 465 kts 281°
2026-05-04 21:10 40.97633 81.61732 35869 ft 467 kts 283°
2026-05-04 21:11 40.99519 81.53499 35866 ft 468 kts 284°
2026-05-04 21:11 41.01451 81.45240 35866 ft 469 kts 284°
2026-05-04 21:12 41.03335 81.36968 35869 ft 470 kts 284°
2026-05-04 21:12 41.05193 81.28663 35869 ft 470 kts 284°
2026-05-04 21:13 41.07046 81.20331 35873 ft 471 kts 284°
2026-05-04 21:13 41.08880 81.12054 35871 ft 471 kts 284°
2026-05-04 21:14 41.10725 81.03703 35872 ft 472 kts 284°
2026-05-04 21:14 41.12566 80.95336 35872 ft 472 kts 284°
2026-05-04 21:15 41.14402 80.86965 35875 ft 473 kts 284°
2026-05-04 21:15 41.16234 80.78578 35874 ft 473 kts 284°
2026-05-04 21:16 41.18061 80.70185 35878 ft 473 kts 284°
2026-05-04 21:16 41.19880 80.61791 35870 ft 474 kts 284°
2026-05-04 21:17 41.21686 80.53427 35874 ft 474 kts 284°
2026-05-04 21:17 41.23495 80.45013 35876 ft 474 kts 284°
2026-05-04 21:18 41.25303 80.36576 35878 ft 474 kts 284°
2026-05-04 21:18 41.27105 80.28126 35873 ft 475 kts 284°
2026-05-04 21:19 41.28888 80.19673 35876 ft 475 kts 284°
2026-05-04 21:19 41.30663 80.11212 35881 ft 475 kts 284°
2026-05-04 21:20 41.32434 80.02744 35885 ft 475 kts 284°
2026-05-04 21:20 41.34190 79.94324 35891 ft 475 kts 284°
2026-05-04 21:21 41.35949 79.85855 35899 ft 475 kts 284°
2026-05-04 21:21 41.37705 79.77365 35907 ft 475 kts 284°
2026-05-04 21:22 41.39454 79.68873 35911 ft 475 kts 284°
2026-05-04 21:22 41.41198 79.60372 35920 ft 475 kts 284°
2026-05-04 21:23 41.42933 79.51879 35936 ft 475 kts 284°
2026-05-04 21:23 41.44660 79.43387 35945 ft 475 kts 284°
2026-05-04 21:24 41.46374 79.34930 35972 ft 475 kts 284°
2026-05-04 21:24 41.48089 79.26428 35990 ft 475 kts 284°
2026-05-04 21:25 41.49800 79.17912 36014 ft 475 kts 284°
2026-05-04 21:25 41.51505 79.09389 36041 ft 475 kts 284°
2026-05-04 21:26 41.53202 79.00874 36079 ft 475 kts 284°
2026-05-04 21:26 41.54892 78.92351 36103 ft 475 kts 284°
2026-05-04 21:27 41.56177 78.85225 36192 ft 474 kts 278°
2026-05-04 21:27 41.56476 78.80863 36524 ft 470 kts 270°
2026-05-04 21:27 41.56436 78.75094 36920 ft 467 kts 268°
2026-05-04 21:28 41.56325 78.70770 37127 ft 466 kts 267°
2026-05-04 21:28 41.56181 78.66445 37335 ft 466 kts 267°
2026-05-04 21:28 41.56076 78.63535 37498 ft 465 kts 266°
2026-05-04 21:28 41.55918 78.59216 37696 ft 465 kts 266°
2026-05-04 21:29 41.55763 78.54915 37894 ft 464 kts 267°
2026-05-04 21:29 41.55612 78.50660 38053 ft 464 kts 267°
2026-05-04 21:29 41.55310 78.42007 38085 ft 470 kts 267°
2026-05-04 21:30 41.55004 78.33278 38071 ft 470 kts 267°
2026-05-04 21:30 41.54693 78.24558 38099 ft 470 kts 267°
2026-05-04 21:31 41.54213 78.11475 38091 ft 470 kts 266°
2026-05-04 21:32 41.53883 78.02753 38106 ft 470 kts 266°
2026-05-04 21:32 41.53547 77.94029 38107 ft 470 kts 266°
2026-05-04 21:33 41.53206 77.85307 38093 ft 470 kts 266°
2026-05-04 21:33 41.52860 77.76651 38110 ft 471 kts 266°
2026-05-04 21:34 41.52503 77.67914 38102 ft 471 kts 266°
2026-05-04 21:34 41.52141 77.59189 38118 ft 471 kts 266°
2026-05-04 21:35 41.51770 77.50429 38110 ft 472 kts 266°
2026-05-04 21:35 41.51397 77.41738 38124 ft 472 kts 266°
2026-05-04 21:36 41.51013 77.32980 38120 ft 472 kts 266°
2026-05-04 21:36 41.50623 77.24225 38129 ft 473 kts 266°
2026-05-04 21:37 41.50226 77.15470 38126 ft 473 kts 266°
2026-05-04 21:37 41.49823 77.06707 38109 ft 473 kts 266°
2026-05-04 21:38 41.49411 76.97933 38130 ft 474 kts 266°
2026-05-04 21:38 41.48993 76.89156 38123 ft 474 kts 266°
2026-05-04 21:39 41.48569 76.80385 38128 ft 474 kts 266°
2026-05-04 21:39 41.48139 76.71650 38118 ft 474 kts 266°
2026-05-04 21:40 41.47701 76.62872 38129 ft 474 kts 266°
2026-05-04 21:40 41.47257 76.54114 38112 ft 474 kts 266°
2026-05-04 21:41 41.46804 76.45308 38131 ft 475 kts 266°
2026-05-04 21:41 41.46345 76.36504 38116 ft 476 kts 266°
2026-05-04 21:42 41.45881 76.27758 38122 ft 476 kts 266°
2026-05-04 21:42 41.45407 76.18934 38132 ft 477 kts 266°
2026-05-04 21:43 41.44927 76.10117 38117 ft 477 kts 266°
2026-05-04 21:43 41.44438 76.01280 38115 ft 477 kts 265°
2026-05-04 21:44 41.43943 75.92443 38128 ft 477 kts 265°
2026-05-04 21:44 41.43441 75.83623 38123 ft 478 kts 265°
2026-05-04 21:45 41.42936 75.74857 38119 ft 478 kts 265°
2026-05-04 21:45 41.42427 75.66034 38120 ft 478 kts 265°
2026-05-04 21:46 41.41905 75.57212 38139 ft 477 kts 265°
2026-05-04 21:46 41.41375 75.48388 38135 ft 477 kts 265°
2026-05-04 21:47 41.40841 75.39591 38142 ft 477 kts 265°
2026-05-04 21:47 41.40301 75.30776 38141 ft 477 kts 265°
2026-05-04 21:48 41.39754 75.21968 38137 ft 477 kts 265°
2026-05-04 21:48 41.39202 75.13176 38144 ft 477 kts 265°
2026-05-04 21:49 41.38642 75.04380 38146 ft 476 kts 265°
2026-05-04 21:49 41.38076 74.95595 38134 ft 476 kts 265°
2026-05-04 21:50 41.37503 74.86794 38133 ft 476 kts 265°
2026-05-04 21:50 41.36934 74.78069 38134 ft 476 kts 265°
2026-05-04 21:51 41.36345 74.69289 38131 ft 476 kts 265°
2026-05-04 21:51 41.35749 74.60504 38140 ft 476 kts 265°
2026-05-04 21:52 41.35149 74.51712 38136 ft 477 kts 264°
2026-05-04 21:52 41.34542 74.42921 38141 ft 477 kts 264°
2026-05-04 21:53 41.33928 74.34133 38143 ft 477 kts 264°
2026-05-04 21:53 41.33313 74.25414 38144 ft 477 kts 264°
2026-05-04 21:54 41.32685 74.16616 38139 ft 477 kts 264°
2026-05-04 21:54 41.32051 74.07830 38135 ft 477 kts 264°
2026-05-04 21:55 41.31411 73.99031 38144 ft 477 kts 264°
2026-05-04 21:55 41.30974 73.90264 38148 ft 477 kts 267°
2026-05-04 21:56 41.30670 73.81445 38147 ft 477 kts 267°
2026-05-04 21:56 41.30332 73.72614 38148 ft 477 kts 266°
2026-05-04 21:57 41.29956 73.63801 38147 ft 477 kts 266°
2026-05-04 21:57 41.29561 73.54985 38149 ft 477 kts 266°
2026-05-04 21:58 41.29159 73.46175 38149 ft 477 kts 266°
2026-05-04 21:58 41.28752 73.37378 38140 ft 477 kts 266°
2026-05-04 21:59 41.28338 73.28546 38132 ft 477 kts 266°
2026-05-04 21:59 41.27922 73.19794 38128 ft 478 kts 266°
2026-05-04 22:00 41.27496 73.10981 38123 ft 478 kts 266°
2026-05-04 22:00 41.27062 73.02167 38118 ft 478 kts 266°
2026-05-04 22:01 41.26622 72.93360 38114 ft 478 kts 266°
2026-05-04 22:01 41.26174 72.84532 38109 ft 478 kts 266°
2026-05-04 22:02 41.25721 72.75727 38102 ft 478 kts 266°
2026-05-04 22:02 41.25264 72.66972 38100 ft 478 kts 266°
2026-05-04 22:03 41.24795 72.58104 38089 ft 478 kts 266°
2026-05-04 22:03 41.24323 72.49355 38079 ft 479 kts 266°
2026-05-04 22:04 41.23830 72.40539 38077 ft 479 kts 266°
2026-05-04 22:04 41.23331 72.31693 38075 ft 479 kts 266°
2026-05-04 22:05 41.22829 72.22879 38069 ft 479 kts 266°
2026-05-04 22:05 41.22327 72.14022 38059 ft 480 kts 266°
2026-05-04 22:06 41.21819 72.05193 38058 ft 480 kts 266°
2026-05-04 22:06 41.21307 71.96406 38056 ft 480 kts 266°
2026-05-04 22:07 41.20785 71.87561 38045 ft 480 kts 266°
2026-05-04 22:07 41.20256 71.78711 38040 ft 481 kts 266°
2026-05-04 22:08 41.19713 71.69847 38036 ft 481 kts 266°
2026-05-04 22:08 41.19168 71.61004 38027 ft 481 kts 266°
2026-05-04 22:09 41.18615 71.52146 38035 ft 481 kts 266°
2026-05-04 22:09 41.18056 71.43304 38030 ft 481 kts 266°
2026-05-04 22:10 41.17492 71.34511 38043 ft 481 kts 266°
2026-05-04 22:10 41.16919 71.25665 38047 ft 480 kts 266°
2026-05-04 22:11 41.16339 71.16828 38059 ft 480 kts 266°
2026-05-04 22:11 41.15753 71.08011 38056 ft 480 kts 266°
2026-05-04 22:12 41.15161 70.99178 38068 ft 480 kts 266°
2026-05-04 22:12 41.14563 70.90374 38065 ft 479 kts 266°
2026-05-04 22:13 41.13957 70.81563 38071 ft 479 kts 266°
2026-05-04 22:13 41.13349 70.72813 38073 ft 479 kts 266°
2026-05-04 22:14 41.12726 70.64017 38074 ft 478 kts 265°
2026-05-04 22:14 41.12099 70.55243 38074 ft 478 kts 266°
2026-05-04 22:15 41.11470 70.46463 38071 ft 478 kts 266°
2026-05-04 22:15 41.10833 70.37687 38067 ft 478 kts 266°
2026-05-04 22:16 41.10194 70.28982 38072 ft 477 kts 266°
2026-05-04 22:16 41.10214 70.20222 38061 ft 475 kts 276°
2026-05-04 22:17 41.10914 70.11507 38069 ft 474 kts 278°
2026-05-04 22:17 41.11566 70.04279 38056 ft 474 kts 278°
2026-05-04 22:18 41.12471 69.94186 38040 ft 473 kts 278°
2026-05-04 22:18 41.13225 69.85515 38031 ft 473 kts 278°
2026-05-04 22:19 41.13846 69.78244 38024 ft 473 kts 278°
2026-05-04 22:19 41.14581 69.69555 38029 ft 473 kts 277°
2026-05-04 22:20 41.15305 69.60939 38007 ft 473 kts 277°
2026-05-04 22:20 41.16028 69.52259 37996 ft 472 kts 277°
2026-05-04 22:21 41.16742 69.43602 37992 ft 472 kts 277°
2026-05-04 22:21 41.17452 69.34918 37985 ft 472 kts 277°
2026-05-04 22:22 41.18151 69.26275 37997 ft 471 kts 277°
2026-05-04 22:22 41.18777 69.17658 37987 ft 472 kts 275°
2026-05-04 22:23 41.18975 69.08945 38000 ft 472 kts 272°
2026-05-04 22:23 41.19088 69.00226 37994 ft 472 kts 273°
2026-05-04 22:24 41.19339 68.91514 37995 ft 471 kts 278°
2026-05-04 22:24 41.20091 68.82875 37977 ft 471 kts 278°
2026-05-04 22:25 41.20921 68.74258 37996 ft 471 kts 278°
2026-05-04 22:25 41.21752 68.65630 37989 ft 471 kts 278°
2026-05-04 22:26 41.22568 68.56990 37987 ft 471 kts 278°
2026-05-04 22:26 41.23373 68.48349 37981 ft 471 kts 278°
2026-05-04 22:27 41.24165 68.39764 37983 ft 471 kts 278°
2026-05-04 22:27 41.24956 68.31124 37982 ft 471 kts 278°
2026-05-04 22:28 41.25742 68.22466 37992 ft 471 kts 278°
2026-05-04 22:28 41.26518 68.13845 37981 ft 467 kts 278°
2026-05-04 22:29 41.27281 68.05287 37978 ft 464 kts 278°
2026-05-04 22:29 41.28038 67.96751 37983 ft 464 kts 278°
2026-05-04 22:30 41.29114 67.88369 37980 ft 463 kts 282°
2026-05-04 22:30 41.30406 67.79969 37979 ft 462 kts 283°
2026-05-04 22:31 41.31717 67.71594 37980 ft 463 kts 283°
2026-05-04 22:31 41.33022 67.63193 37980 ft 463 kts 283°
2026-05-04 22:32 41.34314 67.54798 37983 ft 463 kts 283°
2026-05-04 22:32 41.35596 67.46404 37980 ft 463 kts 282°
2026-05-04 22:33 41.36871 67.38015 37982 ft 462 kts 282°
2026-05-04 22:33 41.38139 67.29626 37982 ft 462 kts 282°
2026-05-04 22:34 41.39396 67.21269 37982 ft 462 kts 282°
2026-05-04 22:34 41.40653 67.12870 37980 ft 462 kts 282°
2026-05-04 22:35 41.41904 67.04469 37983 ft 462 kts 282°
2026-05-04 22:35 41.43149 66.96059 37980 ft 462 kts 282°
2026-05-04 22:36 41.44379 66.87708 37982 ft 462 kts 282°
2026-05-04 22:36 41.45610 66.79309 37982 ft 462 kts 282°
2026-05-04 22:37 41.46845 66.70832 37978 ft 462 kts 282°
2026-05-04 22:37 41.48009 66.62461 37978 ft 462 kts 278°
2026-05-04 22:38 41.48325 66.53893 37977 ft 463 kts 272°
2026-05-04 22:38 41.48362 66.45300 37975 ft 463 kts 271°
2026-05-04 22:39 41.48354 66.36695 37971 ft 463 kts 271°
2026-05-04 22:39 41.48349 66.28101 37974 ft 463 kts 271°
2026-05-04 22:40 41.48348 66.19554 37976 ft 463 kts 271°
2026-05-04 22:40 41.48345 66.10948 37976 ft 463 kts 271°
2026-05-04 22:41 41.48334 66.02347 37973 ft 463 kts 271°
2026-05-04 22:41 41.48317 65.93764 37971 ft 463 kts 271°
2026-05-04 22:42 41.48293 65.85173 37974 ft 463 kts 271°
2026-05-04 22:42 41.48264 65.76591 37977 ft 463 kts 270°
2026-05-04 22:43 41.48183 65.67995 37974 ft 463 kts 270°
2026-05-04 22:43 41.48069 65.59413 37973 ft 463 kts 270°
2026-05-04 22:44 41.47957 65.50894 37971 ft 462 kts 270°
2026-05-04 22:44 41.47845 65.42303 37975 ft 462 kts 270°
2026-05-04 22:45 41.47730 65.33725 37970 ft 462 kts 270°
2026-05-04 22:45 41.47544 65.20880 37980 ft 461 kts 270°
2026-05-04 22:46 41.47413 65.12321 37969 ft 461 kts 270°
2026-05-04 22:46 41.47276 65.03833 37966 ft 461 kts 270°
2026-05-04 22:47 41.47131 64.95269 37975 ft 461 kts 269°
2026-05-04 22:47 41.46981 64.86732 37971 ft 460 kts 269°
2026-05-04 22:48 41.46824 64.78201 37971 ft 460 kts 269°
2026-05-04 22:48 41.46661 64.69659 37978 ft 460 kts 269°
2026-05-04 22:49 41.46492 64.61150 37976 ft 460 kts 269°
2026-05-04 22:49 41.46317 64.52610 37978 ft 459 kts 269°
2026-05-04 22:50 41.46136 64.44152 37976 ft 459 kts 269°
2026-05-04 22:50 41.45949 64.35649 37975 ft 459 kts 269°
2026-05-04 22:51 41.45754 64.27123 37967 ft 459 kts 269°
2026-05-04 22:51 41.45555 64.18633 37967 ft 459 kts 269°
2026-05-04 22:52 41.45348 64.10125 37969 ft 459 kts 269°
2026-05-04 22:52 41.45136 64.01619 37964 ft 459 kts 269°
2026-05-04 22:53 41.44918 63.93177 37964 ft 459 kts 269°
2026-05-04 22:53 41.44694 63.84683 37958 ft 458 kts 269°
2026-05-04 22:54 41.44463 63.76187 37959 ft 458 kts 269°
2026-05-04 22:54 41.44226 63.67705 37963 ft 458 kts 269°
2026-05-04 22:55 41.43979 63.59231 37965 ft 457 kts 269°
2026-05-04 22:55 41.43714 63.50758 37963 ft 457 kts 269°
2026-05-04 22:56 41.43443 63.42299 37959 ft 457 kts 269°
2026-05-04 22:56 41.43170 63.33912 37963 ft 456 kts 269°
2026-05-04 22:57 41.42890 63.25467 37954 ft 456 kts 269°
2026-05-04 22:57 41.42605 63.17033 37958 ft 455 kts 269°
2026-05-04 22:58 41.42314 63.08606 37956 ft 455 kts 269°
2026-05-04 22:58 41.42016 63.00181 37951 ft 454 kts 268°
2026-05-04 22:59 41.41712 62.91763 37953 ft 454 kts 268°
2026-05-04 22:59 41.41404 62.83378 37955 ft 453 kts 268°
2026-05-04 23:00 41.41091 62.75039 37959 ft 453 kts 268°
2026-05-04 23:00 41.40770 62.66653 37957 ft 452 kts 268°
2026-05-04 23:01 41.40444 62.58289 37958 ft 452 kts 268°
2026-05-04 23:01 41.40114 62.49945 37956 ft 451 kts 268°
2026-05-04 23:02 41.39852 62.42995 37947 ft 451 kts 268°
2026-05-04 23:02 41.39488 62.33242 37945 ft 451 kts 268°
2026-05-04 23:03 41.39224 62.26313 37948 ft 450 kts 268°
2026-05-04 23:03 41.38899 62.17992 37947 ft 450 kts 268°
2026-05-04 23:04 41.38514 62.08346 37946 ft 449 kts 268°
2026-05-04 23:04 41.38176 62.00048 37945 ft 448 kts 268°
2026-05-04 23:05 41.37888 61.93092 37941 ft 448 kts 268°
2026-05-04 23:05 41.37545 61.84922 37939 ft 448 kts 268°
2026-05-04 23:06 41.37188 61.76586 37938 ft 448 kts 268°
2026-05-04 23:06 41.36829 61.68310 37935 ft 448 kts 267°
2026-05-04 23:07 41.36463 61.60033 37931 ft 447 kts 267°
2026-05-04 23:07 41.36092 61.51762 37930 ft 447 kts 267°
2026-05-04 23:08 41.35714 61.43488 37929 ft 447 kts 267°
2026-05-04 23:08 41.35337 61.35203 37932 ft 448 kts 267°
2026-05-04 23:09 41.34950 61.26937 37931 ft 448 kts 267°
2026-05-04 23:09 41.34558 61.18717 37921 ft 448 kts 267°
2026-05-04 23:10 41.34160 61.10453 37920 ft 448 kts 267°
2026-05-04 23:10 41.33756 61.02177 37919 ft 448 kts 267°
2026-05-04 23:11 41.33345 60.93884 37915 ft 448 kts 266°
2026-05-04 23:11 41.32930 60.85629 37917 ft 448 kts 266°
2026-05-04 23:12 41.32508 60.77353 37915 ft 448 kts 266°
2026-05-04 23:12 41.32080 60.69086 37912 ft 448 kts 266°
2026-05-04 23:13 41.31649 60.60860 37912 ft 448 kts 266°
2026-05-04 23:13 41.31210 60.52603 37909 ft 448 kts 266°
2026-05-04 23:14 41.30789 60.44331 37904 ft 448 kts 269°
2026-05-04 23:14 41.30999 60.36061 37907 ft 447 kts 273°
2026-05-04 23:15 41.31399 60.27788 37903 ft 447 kts 274°
2026-05-04 23:15 41.31818 60.19579 37903 ft 447 kts 274°
2026-05-04 23:16 41.32227 60.11311 37906 ft 447 kts 273°
2026-05-04 23:16 41.32624 60.03054 37902 ft 447 kts 274°
2026-05-04 23:17 41.33026 59.94783 37898 ft 447 kts 273°
2026-05-04 23:17 41.33422 59.86531 37901 ft 447 kts 273°
2026-05-04 23:18 41.33813 59.78263 37902 ft 447 kts 273°
2026-05-04 23:18 41.34192 59.70000 37899 ft 447 kts 273°
2026-05-04 23:19 41.33882 59.61744 37900 ft 447 kts 264°
2026-05-04 23:19 41.33152 59.53521 37898 ft 448 kts 263°
2026-05-04 23:20 41.32364 59.45344 37897 ft 448 kts 263°
2026-05-04 23:20 41.31570 59.37128 37894 ft 448 kts 263°
2026-05-04 23:21 41.30781 59.28903 37897 ft 448 kts 263°
2026-05-04 23:21 41.29990 59.20675 37897 ft 448 kts 263°
2026-05-04 23:22 41.29195 59.12462 37895 ft 448 kts 263°
2026-05-04 23:22 41.28392 59.04235 37895 ft 448 kts 263°
2026-05-04 23:23 41.27589 58.96070 37895 ft 448 kts 263°
2026-05-04 23:23 41.26776 58.87866 37897 ft 447 kts 263°
2026-05-04 23:24 41.25959 58.79679 37892 ft 446 kts 263°
2026-05-04 23:24 41.25137 58.71510 37890 ft 446 kts 263°
2026-05-04 23:25 41.24310 58.63344 37890 ft 445 kts 263°
2026-05-04 23:25 41.23478 58.55196 37888 ft 445 kts 263°
2026-05-04 23:26 41.22640 58.47043 37885 ft 445 kts 263°
2026-05-04 23:26 41.21799 58.38914 37886 ft 444 kts 262°
2026-05-04 23:27 41.20957 58.30830 37882 ft 444 kts 262°
2026-05-04 23:27 41.20104 58.22711 37885 ft 444 kts 262°
2026-05-04 23:28 41.19247 58.14601 37885 ft 443 kts 262°
2026-05-04 23:28 41.18383 58.06491 37877 ft 443 kts 262°
2026-05-04 23:29 41.17515 57.98395 37881 ft 442 kts 262°
2026-05-04 23:29 41.16643 57.90286 37876 ft 442 kts 262°
2026-05-04 23:30 41.15769 57.82229 37871 ft 442 kts 262°
2026-05-04 23:30 41.14891 57.74188 37875 ft 441 kts 262°
2026-05-04 23:31 41.14006 57.66136 37867 ft 441 kts 262°
2026-05-04 23:31 41.13115 57.58082 37871 ft 441 kts 262°
2026-05-04 23:32 41.12223 57.50076 37868 ft 440 kts 262°
2026-05-04 23:32 41.11322 57.42046 37872 ft 440 kts 262°
2026-05-04 23:33 41.10417 57.34020 37872 ft 439 kts 262°
2026-05-04 23:33 41.09507 57.26003 37874 ft 439 kts 262°
2026-05-04 23:34 41.08593 57.18008 37870 ft 439 kts 262°
2026-05-04 23:34 41.07673 57.10009 37868 ft 438 kts 262°
2026-05-04 23:35 41.06754 57.02069 37873 ft 438 kts 261°
2026-05-04 23:35 41.05826 56.94104 37870 ft 437 kts 261°
2026-05-04 23:36 41.04893 56.86141 37869 ft 437 kts 261°
2026-05-04 23:36 41.03957 56.78197 37872 ft 436 kts 261°
2026-05-04 23:37 41.03016 56.70262 37872 ft 436 kts 261°
2026-05-04 23:37 41.02076 56.62387 37864 ft 435 kts 261°
2026-05-04 23:38 41.01129 56.54499 37856 ft 434 kts 261°
2026-05-04 23:38 41.00637 56.46544 37857 ft 433 kts 267°
2026-05-04 23:39 41.00511 56.38588 37859 ft 432 kts 268°
2026-05-04 23:39 41.00431 56.30635 37856 ft 431 kts 268°
2026-05-04 23:40 41.00342 56.22691 37857 ft 431 kts 268°
2026-05-04 23:40 41.00240 56.14768 37857 ft 430 kts 268°
2026-05-04 23:41 41.00128 56.06906 37857 ft 430 kts 268°
2026-05-04 23:41 41.00011 55.98987 37859 ft 430 kts 268°
2026-05-04 23:42 40.99889 55.91086 37858 ft 429 kts 268°
2026-05-04 23:42 40.99761 55.83185 37854 ft 429 kts 268°
2026-05-04 23:43 40.99632 55.75276 37860 ft 429 kts 268°
2026-05-04 23:43 40.99510 55.67366 37859 ft 429 kts 268°
2026-05-04 23:44 40.99385 55.59519 37865 ft 429 kts 267°
2026-05-04 23:44 40.99252 55.51575 37865 ft 429 kts 267°
2026-05-04 23:45 40.99115 55.43717 37871 ft 429 kts 267°
2026-05-04 23:45 40.98972 55.35815 37869 ft 429 kts 267°
2026-05-04 23:46 40.98823 55.27898 37872 ft 429 kts 267°
2026-05-04 23:46 40.98669 55.19991 37875 ft 430 kts 267°
2026-05-04 23:47 40.98509 55.12081 37870 ft 430 kts 267°
2026-05-04 23:47 40.98344 55.04172 37876 ft 430 kts 266°
2026-05-04 23:48 40.98174 54.96303 37873 ft 430 kts 266°
2026-05-04 23:48 40.97998 54.88393 37872 ft 430 kts 266°
2026-05-04 23:49 40.97818 54.80476 37874 ft 430 kts 266°
2026-05-04 23:49 40.97619 54.72550 37875 ft 431 kts 266°
2026-05-04 23:50 40.97414 54.64627 37874 ft 431 kts 266°
2026-05-04 23:50 40.97243 54.58035 37872 ft 431 kts 266°
2026-05-04 23:51 40.96997 54.48768 37871 ft 431 kts 266°
2026-05-04 23:51 40.96780 54.40832 37873 ft 432 kts 266°
2026-05-04 23:52 40.96596 54.34234 37870 ft 432 kts 266°
2026-05-04 23:52 40.96368 54.26286 37870 ft 432 kts 266°
2026-05-04 23:53 40.96136 54.18339 37871 ft 432 kts 265°
2026-05-04 23:53 40.95898 54.10402 37872 ft 432 kts 265°
2026-05-04 23:54 40.95656 54.02502 37870 ft 432 kts 265°
2026-05-04 23:54 40.95406 53.94513 37868 ft 432 kts 265°
2026-05-04 23:55 40.95153 53.86606 37876 ft 432 kts 265°
2026-05-04 23:56 40.94761 53.74701 37873 ft 432 kts 265°
2026-05-04 23:56 40.94493 53.66756 37876 ft 432 kts 265°
2026-05-04 23:57 40.94220 53.58810 37876 ft 432 kts 265°
2026-05-04 23:57 40.93941 53.50871 37880 ft 432 kts 265°
2026-05-04 23:58 40.93658 53.42978 37878 ft 432 kts 265°
2026-05-04 23:58 40.93369 53.35047 37879 ft 432 kts 265°
2026-05-04 23:59 40.93073 53.27093 37876 ft 432 kts 265°
2026-05-04 23:59 40.92773 53.19158 37873 ft 432 kts 264°
2026-05-05 00:00 40.92466 53.11201 37877 ft 432 kts 264°
2026-05-05 00:00 40.92153 53.03264 37874 ft 432 kts 264°
2026-05-05 00:01 40.91825 52.95368 37876 ft 432 kts 264°
2026-05-05 00:01 40.91491 52.87430 37879 ft 432 kts 264°
2026-05-05 00:02 40.91153 52.79493 37879 ft 432 kts 264°
2026-05-05 00:02 40.90811 52.71551 37876 ft 432 kts 264°
2026-05-05 00:03 40.90465 52.63667 37881 ft 432 kts 264°
2026-05-05 00:03 40.89577 52.55854 37879 ft 430 kts 257°
2026-05-05 00:04 40.88392 52.48112 37870 ft 429 kts 256°
2026-05-05 00:04 40.87162 52.40390 37882 ft 429 kts 256°
2026-05-05 00:05 40.85929 52.32661 37885 ft 430 kts 256°
2026-05-05 00:05 40.84706 52.24969 37892 ft 430 kts 256°
2026-05-05 00:06 40.83472 52.17225 37884 ft 431 kts 256°
2026-05-05 00:06 40.82233 52.09487 37876 ft 431 kts 256°
2026-05-05 00:07 40.80986 52.01731 37881 ft 431 kts 256°
2026-05-05 00:07 40.79732 51.93975 37886 ft 432 kts 256°
2026-05-05 00:08 40.78480 51.86264 37874 ft 432 kts 256°
2026-05-05 00:08 40.77209 51.78465 37881 ft 432 kts 256°
2026-05-05 00:09 40.75948 51.70766 37880 ft 432 kts 256°
2026-05-05 00:09 40.74672 51.63016 37882 ft 433 kts 256°
2026-05-05 00:10 40.73389 51.55252 37885 ft 433 kts 255°
2026-05-05 00:10 40.72439 51.47403 37889 ft 435 kts 263°
2026-05-05 00:11 40.72056 51.39419 37888 ft 436 kts 264°
2026-05-05 00:11 40.71751 51.31438 37890 ft 436 kts 264°
2026-05-05 00:12 40.71443 51.23437 37888 ft 436 kts 264°
2026-05-05 00:12 40.71119 51.15483 37890 ft 437 kts 263°
2026-05-05 00:13 40.70784 51.07503 37890 ft 436 kts 263°
2026-05-05 00:13 40.70441 50.99502 37891 ft 436 kts 263°
2026-05-05 00:14 40.70093 50.91515 37890 ft 437 kts 263°
2026-05-05 00:14 40.69740 50.83526 37886 ft 437 kts 263°
2026-05-05 00:15 40.69382 50.75524 37879 ft 437 kts 263°
2026-05-05 00:15 40.69020 50.67580 37880 ft 437 kts 263°
2026-05-05 00:16 40.68650 50.59581 37874 ft 438 kts 263°
2026-05-05 00:16 40.68275 50.51578 37876 ft 438 kts 263°
2026-05-05 00:17 40.67893 50.43560 37870 ft 438 kts 262°
2026-05-05 00:17 40.67511 50.35553 37871 ft 438 kts 262°
2026-05-05 00:18 40.67115 50.27546 37865 ft 439 kts 262°
2026-05-05 00:18 40.66714 50.19548 37863 ft 439 kts 262°
2026-05-05 00:19 40.66307 50.11511 37859 ft 440 kts 262°
2026-05-05 00:19 40.65895 50.03462 37864 ft 440 kts 262°
2026-05-05 00:20 40.65477 49.95405 37863 ft 441 kts 262°
2026-05-05 00:20 40.65053 49.87344 37869 ft 441 kts 262°
2026-05-05 00:21 40.64623 49.79275 37868 ft 441 kts 262°
2026-05-05 00:21 40.64188 49.71217 37870 ft 441 kts 262°
2026-05-05 00:22 40.63746 49.63146 37876 ft 442 kts 262°
2026-05-05 00:22 40.63298 49.55072 37872 ft 442 kts 261°
2026-05-05 00:23 40.62848 49.47047 37870 ft 442 kts 261°
2026-05-05 00:23 40.62390 49.38983 37870 ft 442 kts 261°
2026-05-05 00:24 40.61927 49.30923 37868 ft 442 kts 261°
2026-05-05 00:24 40.61458 49.22855 37865 ft 441 kts 261°
2026-05-05 00:25 40.61041 49.14805 37870 ft 442 kts 263°
2026-05-05 00:25 40.60916 49.06678 37858 ft 443 kts 264°
2026-05-05 00:26 40.60834 48.98641 37855 ft 442 kts 264°
2026-05-05 00:26 40.60701 48.90555 37856 ft 441 kts 263°
2026-05-05 00:27 40.60536 48.82485 37859 ft 440 kts 263°
2026-05-05 00:27 40.60359 48.74435 37859 ft 439 kts 263°
2026-05-05 00:28 40.60177 48.66402 37851 ft 439 kts 262°
2026-05-05 00:28 40.59993 48.58375 37854 ft 439 kts 262°
2026-05-05 00:29 40.59804 48.50362 37852 ft 438 kts 262°
2026-05-05 00:29 40.59607 48.42379 37855 ft 439 kts 262°
2026-05-05 00:30 40.59406 48.34355 37857 ft 439 kts 262°
2026-05-05 00:30 40.59199 48.26332 37856 ft 439 kts 262°
2026-05-05 00:31 40.58986 48.18271 37857 ft 440 kts 262°
2026-05-05 00:31 40.58772 48.10215 37858 ft 440 kts 262°
2026-05-05 00:32 40.58544 48.02152 37858 ft 441 kts 262°
2026-05-05 00:32 40.58311 47.94093 37861 ft 442 kts 262°
2026-05-05 00:33 40.58433 47.85957 37858 ft 447 kts 267°
2026-05-05 00:33 40.58818 47.77827 37860 ft 448 kts 267°
2026-05-05 00:34 40.59158 47.69647 37875 ft 448 kts 266°
2026-05-05 00:34 40.59427 47.61582 37874 ft 448 kts 266°
2026-05-05 00:35 40.59673 47.53382 37871 ft 448 kts 266°
2026-05-05 00:35 40.59913 47.45177 37870 ft 448 kts 266°
2026-05-05 00:36 40.60151 47.36972 37866 ft 448 kts 266°
2026-05-05 00:36 40.60384 47.28784 37866 ft 448 kts 265°
2026-05-05 00:37 40.60614 47.20591 37964 ft 448 kts 265°
2026-05-05 00:37 40.60893 47.16493 38212 ft 451 kts 270°
2026-05-05 00:37 40.61144 47.13771 38377 ft 451 kts 270°
2026-05-05 00:37 40.61682 47.08347 38608 ft 452 kts 271°
2026-05-05 00:38 40.62104 47.04254 38753 ft 452 kts 271°
2026-05-05 00:38 40.62530 47.00151 38890 ft 452 kts 271°
2026-05-05 00:38 40.62955 46.96054 39022 ft 453 kts 271°
2026-05-05 00:39 40.63662 46.89161 39226 ft 453 kts 271°
2026-05-05 00:39 40.64074 46.85095 39333 ft 454 kts 271°
2026-05-05 00:39 40.64491 46.80962 39444 ft 455 kts 271°
2026-05-05 00:40 40.65318 46.72694 39647 ft 456 kts 271°
2026-05-05 00:40 40.65731 46.68542 39752 ft 457 kts 271°
2026-05-05 00:40 40.66141 46.64404 39850 ft 458 kts 271°
2026-05-05 00:41 40.66966 46.56030 39880 ft 461 kts 271°
2026-05-05 00:41 40.67787 46.47654 39884 ft 461 kts 271°
2026-05-05 00:42 40.68603 46.39267 39884 ft 462 kts 271°
2026-05-05 00:42 40.69414 46.30854 39886 ft 462 kts 271°
2026-05-05 00:43 40.70213 46.22496 39884 ft 463 kts 271°
2026-05-05 00:43 40.71019 46.14013 39884 ft 464 kts 271°
2026-05-05 00:44 40.71808 46.05618 39877 ft 464 kts 271°
2026-05-05 00:44 40.72598 45.97149 39877 ft 465 kts 271°
2026-05-05 00:45 40.73384 45.88669 39872 ft 466 kts 271°
2026-05-05 00:45 40.74164 45.80181 39867 ft 466 kts 271°
2026-05-05 00:46 40.74939 45.71679 39870 ft 466 kts 271°
2026-05-05 00:46 40.75704 45.63227 39870 ft 466 kts 271°
2026-05-05 00:47 40.76466 45.54727 39863 ft 467 kts 271°
2026-05-05 00:47 40.77191 45.46203 39864 ft 466 kts 269°
2026-05-05 00:48 40.77577 45.37699 39865 ft 465 kts 267°
2026-05-05 00:48 40.77877 45.29150 39861 ft 466 kts 268°
2026-05-05 00:49 40.78219 45.20636 39866 ft 467 kts 268°
2026-05-05 00:49 40.78597 45.12030 39867 ft 467 kts 268°
2026-05-05 00:50 40.78972 45.03515 39869 ft 468 kts 268°
2026-05-05 00:50 40.79344 44.94915 39865 ft 469 kts 268°
2026-05-05 00:51 40.79703 44.86336 39871 ft 469 kts 268°
2026-05-05 00:51 40.80058 44.77701 39874 ft 471 kts 268°
2026-05-05 00:52 40.80404 44.69130 39866 ft 470 kts 268°
2026-05-05 00:52 40.80746 44.60476 39875 ft 473 kts 268°
2026-05-05 00:53 40.81089 44.51811 39876 ft 472 kts 268°
2026-05-05 00:53 40.81420 44.43195 39881 ft 472 kts 268°
2026-05-05 00:54 40.81739 44.34527 39897 ft 473 kts 268°
2026-05-05 00:54 40.82059 44.25847 39914 ft 474 kts 268°
2026-05-05 00:55 40.82372 44.17156 39935 ft 475 kts 268°
2026-05-05 00:55 40.82680 44.08422 39951 ft 475 kts 268°
2026-05-05 00:56 40.82981 43.99701 39959 ft 476 kts 268°
2026-05-05 00:56 40.83275 43.90961 39965 ft 476 kts 268°
2026-05-05 00:57 40.83563 43.82222 39968 ft 477 kts 268°
2026-05-05 00:57 40.83849 43.73459 39962 ft 478 kts 268°
2026-05-05 00:58 40.84177 43.64688 39954 ft 480 kts 271°
2026-05-05 00:58 40.84965 43.55957 39952 ft 482 kts 274°
2026-05-05 00:59 40.85876 43.47134 39938 ft 482 kts 274°
2026-05-05 00:59 40.86711 43.38348 39949 ft 482 kts 273°
2026-05-05 01:00 40.87490 43.29586 39946 ft 482 kts 273°
2026-05-05 01:00 40.88255 43.20748 39953 ft 483 kts 273°
2026-05-05 01:01 40.89013 43.11930 39942 ft 483 kts 273°
2026-05-05 01:01 40.89767 43.03118 39945 ft 483 kts 273°
2026-05-05 01:02 40.90515 42.94301 39947 ft 482 kts 273°
2026-05-05 01:02 40.91253 42.85526 39948 ft 482 kts 272°
2026-05-05 01:03 40.91986 42.76719 39947 ft 482 kts 272°
2026-05-05 01:03 40.92714 42.67895 39943 ft 482 kts 272°
2026-05-05 01:04 40.93435 42.59070 39938 ft 482 kts 272°
2026-05-05 01:04 40.94504 42.45827 39939 ft 482 kts 272°
2026-05-05 01:05 40.95208 42.37005 39937 ft 483 kts 272°
2026-05-05 01:05 40.95906 42.28167 39929 ft 483 kts 272°
2026-05-05 01:06 40.96593 42.19382 39927 ft 483 kts 272°
2026-05-05 01:06 40.97279 42.10530 39922 ft 483 kts 272°
2026-05-05 01:07 40.97957 42.01659 39925 ft 484 kts 272°
2026-05-05 01:07 40.98630 41.92794 39919 ft 484 kts 272°
2026-05-05 01:08 40.99299 41.83900 39911 ft 484 kts 272°
2026-05-05 01:08 40.99958 41.75030 39910 ft 485 kts 272°
2026-05-05 01:09 41.00611 41.66150 39903 ft 485 kts 272°
2026-05-05 01:09 41.01260 41.57254 39905 ft 485 kts 272°
2026-05-05 01:10 41.01899 41.48349 39899 ft 486 kts 272°
2026-05-05 01:10 41.02528 41.39484 39902 ft 486 kts 272°
2026-05-05 01:11 41.03156 41.30572 39903 ft 486 kts 272°
2026-05-05 01:11 41.03778 41.21641 39910 ft 487 kts 272°
2026-05-05 01:12 41.04390 41.12750 39921 ft 487 kts 272°
2026-05-05 01:12 41.05004 41.03734 39929 ft 488 kts 272°
2026-05-05 01:13 41.05601 40.94826 39932 ft 488 kts 272°
2026-05-05 01:13 41.06196 40.85865 39937 ft 488 kts 272°
2026-05-05 01:14 41.06786 40.76893 39936 ft 488 kts 272°
2026-05-05 01:14 41.07369 40.67925 39933 ft 489 kts 272°
2026-05-05 01:15 41.07944 40.58952 39930 ft 489 kts 272°
2026-05-05 01:15 41.08513 40.49966 39927 ft 489 kts 272°
2026-05-05 01:16 41.09074 40.40979 39921 ft 489 kts 272°
2026-05-05 01:16 41.09626 40.32040 39924 ft 489 kts 272°
2026-05-05 01:17 41.10177 40.22999 39924 ft 489 kts 272°
2026-05-05 01:17 41.10715 40.14054 39933 ft 490 kts 272°
2026-05-05 01:18 41.11250 40.05056 39931 ft 490 kts 272°
2026-05-05 01:18 41.11778 39.96030 39943 ft 490 kts 272°
2026-05-05 01:19 41.12301 39.86995 39944 ft 490 kts 272°
2026-05-05 01:19 41.12816 39.77962 39942 ft 490 kts 272°
2026-05-05 01:20 41.13319 39.69000 39939 ft 491 kts 272°
2026-05-05 01:20 41.13820 39.59969 39939 ft 491 kts 272°
2026-05-05 01:21 41.14313 39.50942 39936 ft 491 kts 272°
2026-05-05 01:21 41.14800 39.41894 39939 ft 491 kts 272°
2026-05-05 01:22 41.15280 39.32856 39931 ft 491 kts 272°
2026-05-05 01:22 41.15754 39.23795 39933 ft 492 kts 272°
2026-05-05 01:23 41.16220 39.14727 39933 ft 492 kts 272°
2026-05-05 01:23 41.16677 39.05720 39935 ft 492 kts 272°
2026-05-05 01:24 41.17054 38.98178 39934 ft 492 kts 272°
2026-05-05 01:24 41.17500 38.89116 39931 ft 492 kts 272°
2026-05-05 01:25 41.17940 38.80033 39931 ft 493 kts 272°
2026-05-05 01:25 41.18374 38.70938 39932 ft 493 kts 272°
2026-05-05 01:26 41.18799 38.61858 39934 ft 493 kts 272°
2026-05-05 01:26 41.19219 38.52758 39931 ft 494 kts 272°
2026-05-05 01:27 41.19630 38.43663 39933 ft 494 kts 272°
2026-05-05 01:27 41.20036 38.34549 39933 ft 494 kts 272°
2026-05-05 01:28 41.20432 38.25491 39935 ft 494 kts 272°
2026-05-05 01:28 41.20824 38.16362 39935 ft 495 kts 272°
2026-05-05 01:29 41.21208 38.07239 39940 ft 495 kts 272°
2026-05-05 01:29 41.21586 37.98094 39940 ft 495 kts 272°
2026-05-05 01:30 41.21956 37.88963 39940 ft 496 kts 272°
2026-05-05 01:30 41.22319 37.79816 39942 ft 496 kts 272°
2026-05-05 01:31 41.22675 37.70693 39938 ft 496 kts 272°
2026-05-05 01:31 41.23024 37.61528 39944 ft 496 kts 271°
2026-05-05 01:32 41.23367 37.52360 39939 ft 497 kts 271°
2026-05-05 01:32 41.23702 37.43185 39944 ft 497 kts 271°
2026-05-05 01:33 41.24030 37.34015 39936 ft 497 kts 271°
2026-05-05 01:33 41.24350 37.24843 39948 ft 497 kts 271°
2026-05-05 01:34 41.24664 37.15646 39945 ft 497 kts 271°
2026-05-05 01:34 41.24971 37.06465 39945 ft 497 kts 271°
2026-05-05 01:35 41.25268 36.97326 39939 ft 498 kts 271°
2026-05-05 01:35 41.25560 36.88130 39942 ft 498 kts 271°
2026-05-05 01:36 41.25845 36.78932 39935 ft 498 kts 271°
2026-05-05 01:36 41.26123 36.69730 39943 ft 498 kts 271°
2026-05-05 01:37 41.26392 36.60572 39933 ft 498 kts 271°
2026-05-05 01:37 41.27128 36.51411 39932 ft 499 kts 279°
2026-05-05 01:38 41.28464 36.42366 39941 ft 499 kts 281°
2026-05-05 01:38 41.29884 36.33316 39932 ft 500 kts 281°
2026-05-05 01:39 41.31294 36.24282 39932 ft 500 kts 281°
2026-05-05 01:39 41.32688 36.15213 39930 ft 500 kts 281°
2026-05-05 01:40 41.34068 36.06148 39930 ft 500 kts 281°
2026-05-05 01:40 41.35441 35.97071 39931 ft 500 kts 281°
2026-05-05 01:41 41.36809 35.87979 39926 ft 500 kts 281°
2026-05-05 01:41 41.38161 35.78943 39926 ft 501 kts 281°
2026-05-05 01:42 41.39515 35.69851 39923 ft 501 kts 281°
2026-05-05 01:42 41.40862 35.60747 39929 ft 501 kts 281°
2026-05-05 01:43 41.42204 35.51628 39927 ft 501 kts 281°
2026-05-05 01:43 41.43540 35.42492 39928 ft 501 kts 281°
2026-05-05 01:44 41.44865 35.33377 39931 ft 501 kts 281°
2026-05-05 01:44 41.46174 35.24321 39930 ft 501 kts 281°
2026-05-05 01:45 41.47485 35.15200 39934 ft 501 kts 281°
2026-05-05 01:45 41.48789 35.06073 39935 ft 500 kts 281°
2026-05-05 01:46 41.50084 34.96953 39935 ft 500 kts 281°
2026-05-05 01:46 41.51372 34.87835 39943 ft 500 kts 281°
2026-05-05 01:47 41.52651 34.78716 39944 ft 500 kts 281°
2026-05-05 01:47 41.53922 34.69605 39950 ft 499 kts 281°
2026-05-05 01:48 41.55187 34.60487 39955 ft 499 kts 281°
2026-05-05 01:48 41.56442 34.51380 39963 ft 499 kts 281°
2026-05-05 01:49 41.57689 34.42276 39968 ft 498 kts 281°
2026-05-05 01:49 41.58922 34.33218 39970 ft 498 kts 281°
2026-05-05 01:50 41.60154 34.24108 39980 ft 499 kts 281°
2026-05-05 01:50 41.61382 34.14974 39983 ft 499 kts 281°
2026-05-05 01:51 41.62604 34.05829 39986 ft 500 kts 281°
2026-05-05 01:51 41.63820 33.96674 39991 ft 500 kts 281°
2026-05-05 01:52 41.65029 33.87511 39995 ft 501 kts 281°
2026-05-05 01:52 41.66233 33.78323 39999 ft 501 kts 281°
2026-05-05 01:53 41.67430 33.69133 39994 ft 501 kts 281°
2026-05-05 01:53 41.68620 33.59938 40002 ft 502 kts 281°
2026-05-05 01:54 41.69802 33.50740 39996 ft 501 kts 281°
2026-05-05 01:54 41.70969 33.41601 40000 ft 501 kts 281°
2026-05-05 01:55 41.72135 33.32412 39994 ft 501 kts 281°
2026-05-05 01:55 41.73294 33.23208 39986 ft 500 kts 281°
2026-05-05 01:56 41.74443 33.14030 39979 ft 499 kts 281°
2026-05-05 01:56 41.75583 33.04854 39971 ft 499 kts 281°
2026-05-05 01:57 41.76709 32.95741 39956 ft 498 kts 281°
2026-05-05 01:57 41.77833 32.86579 39959 ft 498 kts 281°
2026-05-05 01:58 41.78948 32.77428 39950 ft 498 kts 281°
2026-05-05 01:58 41.80056 32.68263 39953 ft 497 kts 281°
2026-05-05 01:59 41.81157 32.59102 39946 ft 497 kts 281°
2026-05-05 01:59 41.82250 32.49945 39939 ft 497 kts 281°
2026-05-05 02:00 41.83333 32.40800 39941 ft 497 kts 281°
2026-05-05 02:00 41.84411 32.31640 39940 ft 497 kts 281°
2026-05-05 02:01 41.85474 32.22536 39940 ft 496 kts 280°
2026-05-05 02:01 41.86535 32.13386 39938 ft 496 kts 280°
2026-05-05 02:02 41.87592 32.04211 39937 ft 496 kts 280°
2026-05-05 02:02 41.88632 31.95114 39939 ft 496 kts 280°
2026-05-05 02:03 41.89670 31.85970 39943 ft 496 kts 280°
2026-05-05 02:03 41.90704 31.76791 39941 ft 496 kts 280°
2026-05-05 02:04 41.91726 31.67651 39946 ft 496 kts 280°
2026-05-05 02:04 41.92742 31.58495 39948 ft 496 kts 280°
2026-05-05 02:05 41.93752 31.49329 39946 ft 495 kts 280°
2026-05-05 02:05 41.94746 31.40231 39950 ft 495 kts 280°
2026-05-05 02:06 41.95741 31.31070 39952 ft 495 kts 280°
2026-05-05 02:06 41.96726 31.21921 39953 ft 495 kts 280°
2026-05-05 02:07 41.97704 31.12770 39960 ft 495 kts 280°
2026-05-05 02:07 41.98675 31.03612 39961 ft 495 kts 280°
2026-05-05 02:08 41.99638 30.94452 39966 ft 495 kts 280°
2026-05-05 02:08 42.00594 30.85298 39966 ft 494 kts 280°
2026-05-05 02:09 42.01543 30.76138 39974 ft 494 kts 280°
2026-05-05 02:09 42.02479 30.67023 39977 ft 493 kts 280°
2026-05-05 02:10 42.03410 30.57887 39976 ft 493 kts 280°
2026-05-05 02:10 42.04179 30.50279 39977 ft 493 kts 280°
2026-05-05 02:11 42.05096 30.41152 39979 ft 492 kts 280°
2026-05-05 02:11 42.06005 30.32027 39987 ft 492 kts 280°
2026-05-05 02:12 42.07355 30.18329 39985 ft 491 kts 280°
2026-05-05 02:13 42.08245 30.09201 39998 ft 491 kts 280°
2026-05-05 02:13 42.09120 30.00157 40001 ft 491 kts 280°
2026-05-05 02:14 42.09996 29.91031 39999 ft 491 kts 280°
2026-05-05 02:14 42.10862 29.81913 39999 ft 491 kts 280°
2026-05-05 02:15 42.11722 29.72791 40002 ft 491 kts 280°
2026-05-05 02:15 42.12575 29.63664 40006 ft 490 kts 280°
2026-05-05 02:16 42.13420 29.54541 40004 ft 490 kts 280°
2026-05-05 02:16 42.14252 29.45486 40007 ft 490 kts 280°
2026-05-05 02:17 42.15080 29.36382 40009 ft 489 kts 280°
2026-05-05 02:17 42.15902 29.27276 40008 ft 489 kts 279°
2026-05-05 02:18 42.16882 29.18220 40015 ft 486 kts 287°
2026-05-05 02:18 42.19371 29.09873 40017 ft 477 kts 304°
2026-05-05 02:19 42.22971 29.02369 40018 ft 476 kts 307°
2026-05-05 02:19 42.26722 28.94997 40019 ft 476 kts 307°
2026-05-05 02:20 42.30465 28.87627 40026 ft 476 kts 307°
2026-05-05 02:20 42.34192 28.80209 40027 ft 477 kts 307°
2026-05-05 02:21 42.37904 28.72770 40029 ft 477 kts 307°
2026-05-05 02:21 42.41582 28.65379 40034 ft 477 kts 307°
2026-05-05 02:22 42.45287 28.57916 40033 ft 477 kts 307°
2026-05-05 02:22 42.48992 28.50437 40035 ft 478 kts 306°
2026-05-05 02:23 42.52693 28.42949 40033 ft 478 kts 306°
2026-05-05 02:23 42.56393 28.35442 40032 ft 479 kts 306°
2026-05-05 02:24 42.60088 28.27928 40035 ft 479 kts 306°
2026-05-05 02:24 42.63788 28.20384 40035 ft 479 kts 306°
2026-05-05 02:25 42.67460 28.12878 40036 ft 480 kts 306°
2026-05-05 02:25 42.71150 28.05316 40036 ft 480 kts 306°
2026-05-05 02:26 42.74845 27.97724 40039 ft 481 kts 306°
2026-05-05 02:26 42.78534 27.90128 40042 ft 481 kts 305°
2026-05-05 02:27 42.82217 27.82522 40040 ft 481 kts 305°
2026-05-05 02:27 42.85898 27.74901 40041 ft 482 kts 305°
2026-05-05 02:28 42.89576 27.67267 40039 ft 482 kts 305°
2026-05-05 02:28 42.93238 27.59646 40040 ft 482 kts 304°
2026-05-05 02:29 42.96907 27.51992 40043 ft 482 kts 304°
2026-05-05 02:29 43.00577 27.44316 40045 ft 482 kts 304°
2026-05-05 02:30 43.04240 27.36633 40045 ft 482 kts 304°
2026-05-05 02:30 43.07872 27.28997 40053 ft 482 kts 304°
2026-05-05 02:31 43.11520 27.21307 40052 ft 481 kts 304°
2026-05-05 02:31 43.15159 27.13615 40054 ft 481 kts 304°
2026-05-05 02:32 43.18792 27.05918 40056 ft 481 kts 304°
2026-05-05 02:32 43.22421 26.98206 40060 ft 480 kts 304°
2026-05-05 02:33 43.26042 26.90491 40058 ft 480 kts 304°
2026-05-05 02:33 43.29648 26.82790 40062 ft 480 kts 304°
2026-05-05 02:34 43.33254 26.75069 40059 ft 479 kts 304°
2026-05-05 02:34 43.36825 26.67401 40061 ft 479 kts 304°
2026-05-05 02:35 43.40412 26.59678 40063 ft 478 kts 304°
2026-05-05 02:35 43.43993 26.51950 40062 ft 478 kts 304°
2026-05-05 02:36 43.47506 26.44349 40061 ft 478 kts 304°
2026-05-05 02:36 43.51044 26.36672 40061 ft 478 kts 303°
2026-05-05 02:37 43.54605 26.28926 40062 ft 477 kts 303°
2026-05-05 02:37 43.58152 26.21188 40063 ft 477 kts 303°
2026-05-05 02:38 43.61689 26.13454 40062 ft 477 kts 303°
2026-05-05 02:38 43.65226 26.05697 40062 ft 476 kts 303°
2026-05-05 02:39 43.68731 25.97992 40055 ft 476 kts 303°
2026-05-05 02:39 43.72251 25.90233 40056 ft 475 kts 303°
2026-05-05 02:40 43.75755 25.82488 40055 ft 475 kts 303°
2026-05-05 02:40 43.79263 25.74714 40054 ft 475 kts 303°
2026-05-05 02:41 43.82758 25.66947 40054 ft 475 kts 303°
2026-05-05 02:41 43.86248 25.59170 40054 ft 475 kts 303°
2026-05-05 02:42 43.89727 25.51398 40056 ft 475 kts 303°
2026-05-05 02:42 43.93203 25.43613 40055 ft 474 kts 303°
2026-05-05 02:43 43.96672 25.35821 40056 ft 474 kts 303°
2026-05-05 02:43 44.00202 25.28155 40058 ft 473 kts 306°
2026-05-05 02:44 44.04059 25.20735 40059 ft 472 kts 308°
2026-05-05 02:44 44.07927 25.13356 40061 ft 472 kts 307°
2026-05-05 02:45 44.11741 25.05921 40063 ft 472 kts 307°
2026-05-05 02:45 44.15525 24.98451 40062 ft 471 kts 307°
2026-05-05 02:46 44.19292 24.90979 40062 ft 471 kts 306°
2026-05-05 02:46 44.23036 24.83539 40061 ft 471 kts 306°
2026-05-05 02:47 44.26795 24.76054 40061 ft 471 kts 306°
2026-05-05 02:47 44.30554 24.68550 40061 ft 471 kts 306°
2026-05-05 02:48 44.34308 24.61039 40065 ft 471 kts 306°
2026-05-05 02:48 44.38053 24.53525 40070 ft 471 kts 306°
2026-05-05 02:49 44.41790 24.46008 40070 ft 471 kts 306°
2026-05-05 02:49 44.45524 24.38479 40067 ft 471 kts 306°
2026-05-05 02:50 44.49263 24.30919 40067 ft 471 kts 306°
2026-05-05 02:50 44.52989 24.23364 40065 ft 471 kts 306°
2026-05-05 02:51 44.56689 24.15845 40079 ft 471 kts 306°
2026-05-05 02:51 44.60404 24.08273 40068 ft 471 kts 306°
2026-05-05 02:52 44.64114 24.00693 40077 ft 471 kts 306°
2026-05-05 02:52 44.67824 23.93092 40085 ft 471 kts 306°
2026-05-05 02:53 44.71531 23.85478 40080 ft 471 kts 306°
2026-05-05 02:53 44.75234 23.77850 40090 ft 471 kts 306°
2026-05-05 02:54 44.78897 23.70286 40093 ft 471 kts 306°
2026-05-05 02:54 44.82586 23.62648 40088 ft 471 kts 305°
2026-05-05 02:55 44.86261 23.55020 40088 ft 470 kts 305°
2026-05-05 02:55 44.89932 23.47377 40092 ft 470 kts 305°
2026-05-05 02:56 44.93596 23.39731 40083 ft 470 kts 305°
2026-05-05 02:56 44.96642 23.33359 40084 ft 470 kts 305°
2026-05-05 02:57 45.00289 23.25710 40088 ft 469 kts 305°
2026-05-05 02:57 45.03937 23.18038 40095 ft 469 kts 305°
2026-05-05 02:58 45.07564 23.10389 40095 ft 469 kts 305°
2026-05-05 02:58 45.11175 23.02756 40102 ft 469 kts 305°
2026-05-05 02:59 45.14818 22.95031 40103 ft 469 kts 305°
2026-05-05 02:59 45.18410 22.87397 40112 ft 468 kts 305°
2026-05-05 03:00 45.22021 22.79703 40112 ft 468 kts 305°
2026-05-05 03:00 45.25616 22.72019 40117 ft 468 kts 305°
2026-05-05 03:01 45.29212 22.64310 40115 ft 468 kts 305°
2026-05-05 03:01 45.32795 22.56612 40116 ft 467 kts 304°
2026-05-05 03:02 45.36376 22.48898 40118 ft 467 kts 304°
2026-05-05 03:02 45.39948 22.41183 40123 ft 466 kts 304°
2026-05-05 03:03 45.43505 22.33475 40112 ft 466 kts 304°
2026-05-05 03:03 45.47058 22.25758 40110 ft 466 kts 304°
2026-05-05 03:04 45.50601 22.18041 40102 ft 465 kts 304°
2026-05-05 03:04 45.54137 22.10317 40101 ft 465 kts 304°
2026-05-05 03:05 45.57665 22.02591 40102 ft 464 kts 304°
2026-05-05 03:05 45.61162 21.94911 40100 ft 464 kts 304°
2026-05-05 03:06 45.64673 21.87180 40093 ft 464 kts 304°
2026-05-05 03:06 45.68190 21.79414 40089 ft 464 kts 304°
2026-05-05 03:07 45.71698 21.71649 40083 ft 464 kts 304°
2026-05-05 03:07 45.75196 21.63883 40079 ft 464 kts 304°
2026-05-05 03:08 45.78672 21.56143 40075 ft 464 kts 303°
2026-05-05 03:08 45.82166 21.48342 40074 ft 464 kts 303°
2026-05-05 03:09 45.85622 21.40605 40075 ft 463 kts 303°
2026-05-05 03:09 45.89096 21.32807 40077 ft 463 kts 303°
2026-05-05 03:10 45.92568 21.24992 40073 ft 464 kts 303°
2026-05-05 03:10 45.96026 21.17186 40074 ft 464 kts 303°
2026-05-05 03:11 45.99483 21.09360 40068 ft 463 kts 303°
2026-05-05 03:11 46.02933 21.01528 40069 ft 464 kts 303°
2026-05-05 03:12 46.06382 20.93677 40067 ft 463 kts 303°
2026-05-05 03:12 46.09825 20.85817 40067 ft 463 kts 303°
2026-05-05 03:13 46.13243 20.77992 40061 ft 463 kts 303°
2026-05-05 03:13 46.16676 20.70110 40055 ft 463 kts 302°
2026-05-05 03:14 46.19894 20.62051 40053 ft 464 kts 298°
2026-05-05 03:14 46.22922 20.53807 40053 ft 464 kts 298°
2026-05-05 03:15 46.25955 20.45616 40053 ft 464 kts 299°
2026-05-05 03:15 46.29034 20.37424 40053 ft 464 kts 299°
2026-05-05 03:16 46.32127 20.29219 40052 ft 464 kts 299°
2026-05-05 03:16 46.35216 20.21003 40048 ft 465 kts 299°
2026-05-05 03:17 46.38294 20.12784 40051 ft 465 kts 299°
2026-05-05 03:17 46.41357 20.04576 40051 ft 465 kts 298°
2026-05-05 03:18 46.44424 19.96332 40045 ft 465 kts 298°
2026-05-05 03:18 46.47493 19.88059 40045 ft 465 kts 298°
2026-05-05 03:19 46.52081 19.75641 40043 ft 465 kts 298°
2026-05-05 03:19 46.55133 19.67350 40041 ft 466 kts 298°
2026-05-05 03:20 46.58183 19.59038 40040 ft 466 kts 298°
2026-05-05 03:20 46.61207 19.50772 40037 ft 466 kts 298°
2026-05-05 03:21 46.64242 19.42450 40037 ft 466 kts 298°
2026-05-05 03:21 46.67280 19.34095 40032 ft 466 kts 297°
2026-05-05 03:22 46.70309 19.25737 40031 ft 466 kts 297°
2026-05-05 03:22 46.73337 19.17356 40027 ft 466 kts 297°
2026-05-05 03:23 46.76353 19.08979 40028 ft 466 kts 297°
2026-05-05 03:23 46.79361 19.00603 40027 ft 467 kts 297°
2026-05-05 03:24 46.82370 18.92193 40023 ft 467 kts 297°
2026-05-05 03:24 46.85347 18.83848 40019 ft 467 kts 297°
2026-05-05 03:25 46.88345 18.75419 40018 ft 467 kts 297°
2026-05-05 03:25 46.91338 18.66976 40014 ft 467 kts 297°
2026-05-05 03:26 46.94319 18.58539 40012 ft 467 kts 297°
2026-05-05 03:26 46.97290 18.50103 40010 ft 467 kts 296°
2026-05-05 03:27 47.00264 18.41636 40012 ft 467 kts 296°
2026-05-05 03:27 47.03226 18.33170 40008 ft 467 kts 296°
2026-05-05 03:28 47.06182 18.24698 40011 ft 467 kts 296°
2026-05-05 03:28 47.09112 18.16273 40007 ft 467 kts 296°
2026-05-05 03:29 47.12056 18.07779 39998 ft 466 kts 296°
2026-05-05 03:29 47.14994 17.99274 40000 ft 466 kts 296°
2026-05-05 03:30 47.17921 17.90776 39983 ft 466 kts 296°
2026-05-05 03:30 47.20846 17.82255 39968 ft 466 kts 296°
2026-05-05 03:31 47.23765 17.73725 39955 ft 466 kts 296°
2026-05-05 03:31 47.26673 17.65196 39944 ft 466 kts 296°
2026-05-05 03:32 47.29557 17.56711 39939 ft 466 kts 296°
2026-05-05 03:32 47.32452 17.48167 39940 ft 466 kts 295°
2026-05-05 03:33 47.35344 17.39602 39939 ft 466 kts 295°
2026-05-05 03:33 47.38228 17.31033 39940 ft 466 kts 295°
2026-05-05 03:34 47.41106 17.22455 39940 ft 466 kts 295°
2026-05-05 03:34 47.43973 17.13878 39939 ft 466 kts 295°
2026-05-05 03:35 47.46839 17.05279 39933 ft 466 kts 295°
2026-05-05 03:35 47.49677 16.96734 39926 ft 466 kts 295°
2026-05-05 03:36 47.52530 16.88115 39920 ft 465 kts 295°
2026-05-05 03:36 47.55371 16.79503 39914 ft 465 kts 295°
2026-05-05 03:37 47.58212 16.70886 39907 ft 465 kts 295°
2026-05-05 03:37 47.61072 16.62294 39897 ft 465 kts 295°
2026-05-05 03:38 47.63937 16.53681 39893 ft 465 kts 295°
2026-05-05 03:38 47.66783 16.45080 39897 ft 465 kts 295°
2026-05-05 03:39 47.69632 16.36432 39892 ft 465 kts 295°
2026-05-05 03:39 47.72445 16.27861 39893 ft 464 kts 295°
2026-05-05 03:40 47.75269 16.19227 39892 ft 464 kts 294°
2026-05-05 03:40 47.78090 16.10575 39898 ft 464 kts 294°
2026-05-05 03:41 47.80900 16.01928 39897 ft 464 kts 294°
2026-05-05 03:41 47.83229 15.94738 39897 ft 464 kts 294°
2026-05-05 03:42 47.86474 15.84684 39900 ft 464 kts 294°
2026-05-05 03:42 47.88814 15.77412 39900 ft 464 kts 294°
2026-05-05 03:43 47.91579 15.68790 39900 ft 463 kts 294°
2026-05-05 03:43 47.94353 15.60111 39902 ft 463 kts 294°
2026-05-05 03:44 47.97121 15.51420 39898 ft 463 kts 294°
2026-05-05 03:44 47.99880 15.42729 39895 ft 463 kts 294°
2026-05-05 03:45 48.02638 15.34009 39893 ft 463 kts 293°
2026-05-05 03:45 48.05365 15.25359 39885 ft 463 kts 293°
2026-05-05 03:46 48.08107 15.16631 39886 ft 463 kts 293°
2026-05-05 03:46 48.10844 15.07890 39883 ft 463 kts 293°
2026-05-05 03:47 48.13570 14.99151 39880 ft 463 kts 293°
2026-05-05 03:47 48.16294 14.90389 39877 ft 463 kts 293°
2026-05-05 03:48 48.19009 14.81625 39879 ft 463 kts 292°
2026-05-05 03:48 48.21698 14.72914 39882 ft 463 kts 292°
2026-05-05 03:49 48.24401 14.64127 39882 ft 463 kts 292°
2026-05-05 03:49 48.27094 14.55342 39884 ft 463 kts 292°
2026-05-05 03:50 48.29782 14.46545 39875 ft 463 kts 292°
2026-05-05 03:50 48.32455 14.37761 39883 ft 463 kts 292°
2026-05-05 03:51 48.35115 14.28991 39888 ft 463 kts 292°
2026-05-05 03:51 48.37783 14.20162 39886 ft 463 kts 292°
2026-05-05 03:52 48.40444 14.11327 39886 ft 463 kts 292°
2026-05-05 03:52 48.43104 14.02463 39889 ft 464 kts 292°
2026-05-05 03:53 48.45755 13.93595 39885 ft 464 kts 292°
2026-05-05 03:53 48.48383 13.84774 39893 ft 464 kts 291°
2026-05-05 03:54 48.51021 13.75887 39891 ft 464 kts 291°
2026-05-05 03:54 48.53653 13.66990 39894 ft 464 kts 291°
2026-05-05 03:55 48.56278 13.58080 39901 ft 464 kts 291°
2026-05-05 03:55 48.58899 13.49150 39884 ft 464 kts 291°
2026-05-05 03:56 48.61210 13.40069 39886 ft 463 kts 287°
2026-05-05 03:56 48.63293 13.30926 39889 ft 463 kts 287°
2026-05-05 03:57 48.65426 13.21729 39886 ft 463 kts 287°
2026-05-05 03:57 48.67600 13.12553 39887 ft 464 kts 287°
2026-05-05 03:58 48.69789 13.03369 39885 ft 463 kts 287°
2026-05-05 03:58 48.71959 12.94186 39882 ft 463 kts 287°
2026-05-05 03:59 48.74115 12.84983 39883 ft 463 kts 287°
2026-05-05 03:59 48.76246 12.75859 39883 ft 462 kts 287°
2026-05-05 04:00 48.78384 12.66671 39883 ft 462 kts 287°
2026-05-05 04:00 48.80525 12.57470 39884 ft 461 kts 287°
2026-05-05 04:01 48.82639 12.48283 39886 ft 461 kts 286°
2026-05-05 04:01 48.84747 12.39084 39887 ft 461 kts 286°
2026-05-05 04:02 48.86836 12.29939 39886 ft 461 kts 286°
2026-05-05 04:02 48.88930 12.20744 39882 ft 460 kts 286°
2026-05-05 04:03 48.90948 12.11500 39884 ft 460 kts 285°
2026-05-05 04:03 48.92896 12.02227 39882 ft 460 kts 284°
2026-05-05 04:04 48.94847 11.92961 39881 ft 460 kts 284°
2026-05-05 04:04 48.96795 11.83736 39881 ft 460 kts 284°
2026-05-05 04:05 48.98748 11.74474 39879 ft 460 kts 284°
2026-05-05 04:05 49.00696 11.65192 39880 ft 460 kts 284°
2026-05-05 04:06 49.02636 11.55898 39882 ft 460 kts 284°
2026-05-05 04:06 49.04562 11.46629 39887 ft 460 kts 284°
2026-05-05 04:07 49.06491 11.37301 39892 ft 461 kts 284°
2026-05-05 04:07 49.08410 11.27980 39900 ft 461 kts 284°
2026-05-05 04:08 49.10320 11.18660 39907 ft 461 kts 284°
2026-05-05 04:08 49.12217 11.09359 39911 ft 461 kts 284°
2026-05-05 04:09 49.14117 10.99997 39915 ft 461 kts 284°
2026-05-05 04:09 49.16024 10.90556 39916 ft 461 kts 284°
2026-05-05 04:10 49.17897 10.81239 39915 ft 462 kts 283°
2026-05-05 04:10 49.19779 10.71834 39910 ft 462 kts 283°
2026-05-05 04:11 49.21539 10.62407 39909 ft 461 kts 282°
2026-05-05 04:11 49.23185 10.52900 39910 ft 461 kts 281°
2026-05-05 04:12 49.24838 10.43400 39916 ft 462 kts 282°
2026-05-05 04:12 49.26494 10.33977 39918 ft 462 kts 282°
2026-05-05 04:13 49.28166 10.24463 39908 ft 462 kts 282°
2026-05-05 04:13 49.29829 10.14947 39918 ft 462 kts 282°
2026-05-05 04:14 49.31486 10.05411 39913 ft 463 kts 281°
2026-05-05 04:14 49.33132 9.95883 39910 ft 463 kts 281°
2026-05-05 04:15 49.34773 9.86334 39913 ft 463 kts 281°
2026-05-05 04:15 49.36407 9.76772 39913 ft 463 kts 281°
2026-05-05 04:16 49.38022 9.67264 39910 ft 464 kts 281°
2026-05-05 04:16 49.39653 9.57617 39910 ft 464 kts 281°
2026-05-05 04:17 49.41258 9.48068 39910 ft 464 kts 281°
2026-05-05 04:17 49.42863 9.38463 39907 ft 464 kts 281°
2026-05-05 04:18 49.44461 9.28844 39907 ft 465 kts 281°
2026-05-05 04:18 49.46054 9.19210 39903 ft 465 kts 281°
2026-05-05 04:19 49.47257 9.09529 39905 ft 462 kts 276°
2026-05-05 04:19 49.48224 8.99763 39899 ft 462 kts 275°
2026-05-05 04:20 49.49157 8.89985 39892 ft 462 kts 275°
2026-05-05 04:20 49.50088 8.80180 39888 ft 462 kts 275°
2026-05-05 04:21 49.51015 8.70387 39884 ft 462 kts 275°
2026-05-05 04:21 49.51935 8.60597 39883 ft 462 kts 275°
2026-05-05 04:22 49.52840 8.50875 39887 ft 462 kts 275°
2026-05-05 04:22 49.53743 8.41076 39888 ft 461 kts 275°
2026-05-05 04:23 49.54636 8.31293 39892 ft 461 kts 275°
2026-05-05 04:23 49.55522 8.21498 39892 ft 461 kts 275°
2026-05-05 04:24 49.56398 8.11713 39898 ft 461 kts 275°
2026-05-05 04:25 49.57694 7.97059 39901 ft 461 kts 275°
2026-05-05 04:25 49.58548 7.87287 39899 ft 461 kts 275°
2026-05-05 04:26 49.59393 7.77496 39895 ft 461 kts 274°
2026-05-05 04:26 49.60231 7.67710 39896 ft 461 kts 274°
2026-05-05 04:27 49.61062 7.57908 39898 ft 461 kts 274°
2026-05-05 04:27 49.61884 7.48113 39898 ft 461 kts 274°
2026-05-05 04:28 49.62698 7.38297 39896 ft 461 kts 274°
2026-05-05 04:28 49.63367 7.30142 39899 ft 461 kts 274°
2026-05-05 04:29 49.64166 7.20331 39900 ft 461 kts 274°
2026-05-05 04:29 49.64958 7.10497 39901 ft 461 kts 274°
2026-05-05 04:30 49.65741 7.00677 39896 ft 462 kts 274°
2026-05-05 04:30 49.66515 6.90852 39883 ft 462 kts 274°
2026-05-05 04:31 49.67282 6.80995 39894 ft 462 kts 274°
2026-05-05 04:31 49.68038 6.71184 39893 ft 462 kts 274°
2026-05-05 04:32 49.68794 6.61268 39878 ft 462 kts 274°
2026-05-05 04:32 49.69531 6.51473 39895 ft 462 kts 274°
2026-05-05 04:33 49.70267 6.41583 39886 ft 463 kts 274°
2026-05-05 04:33 49.70995 6.31675 39885 ft 463 kts 274°
2026-05-05 04:34 49.71708 6.21859 39884 ft 463 kts 274°
2026-05-05 04:34 49.72419 6.11963 39889 ft 463 kts 273°
2026-05-05 04:35 49.73121 6.02063 39894 ft 463 kts 273°
2026-05-05 04:35 49.73745 5.92120 39891 ft 462 kts 269°
2026-05-05 04:36 49.73028 5.82383 39901 ft 455 kts 252°
2026-05-05 04:36 49.71031 5.73093 39901 ft 455 kts 248°
2026-05-05 04:37 49.68857 5.63913 39907 ft 455 kts 248°
2026-05-05 04:37 49.66689 5.54798 39904 ft 455 kts 248°
2026-05-05 04:38 49.64517 5.45598 39905 ft 455 kts 248°
2026-05-05 04:38 49.62353 5.36426 39904 ft 456 kts 248°
2026-05-05 04:39 49.60304 5.27137 39911 ft 457 kts 250°
2026-05-05 04:39 49.59196 5.17492 39904 ft 462 kts 267°
2026-05-05 04:40 49.59261 5.07631 39898 ft 464 kts 268°
2026-05-05 04:40 49.59344 4.97671 39907 ft 465 kts 268°
2026-05-05 04:41 49.59416 4.87668 39903 ft 465 kts 268°
2026-05-05 04:41 49.59479 4.77747 39901 ft 466 kts 268°
2026-05-05 04:42 49.59537 4.67742 39903 ft 466 kts 267°
2026-05-05 04:42 49.59578 4.57727 39899 ft 467 kts 267°
2026-05-05 04:43 49.59613 4.47702 39898 ft 467 kts 267°
2026-05-05 04:43 49.59640 4.37752 39895 ft 468 kts 267°
2026-05-05 04:44 49.59659 4.27689 39897 ft 469 kts 267°
2026-05-05 04:44 49.59669 4.17638 39899 ft 469 kts 267°
2026-05-05 04:45 49.59669 4.07596 39893 ft 464 kts 267°
2026-05-05 04:45 49.59477 4.02688 39893 ft 453 kts 259°
2026-05-05 04:45 49.58795 3.97997 39895 ft 445 kts 249°
2026-05-05 04:46 49.55954 3.89715 39894 ft 439 kts 230°
2026-05-05 04:46 49.51483 3.83398 39896 ft 438 kts 212°
2026-05-05 04:47 49.45906 3.79640 39895 ft 440 kts 194°
2026-05-05 04:47 49.39799 3.78935 39873 ft 444 kts 176°
2026-05-05 04:47 49.37071 3.79611 39696 ft 455 kts 169°
2026-05-05 04:48 49.35289 3.80242 39625 ft 460 kts 168°
2026-05-05 04:48 49.29883 3.82756 39628 ft 470 kts 159°
2026-05-05 04:48 49.26987 3.85118 39534 ft 475 kts 148°
2026-05-05 04:49 49.24462 3.88374 39145 ft 480 kts 135°
2026-05-05 04:49 49.22439 3.92458 38550 ft 485 kts 124°
2026-05-05 04:49 49.20951 3.97064 37691 ft 492 kts 114°
2026-05-05 04:49 49.19976 4.02118 36770 ft 501 kts 105°
2026-05-05 04:50 49.19546 4.07456 35845 ft 510 kts 97°
2026-05-05 04:50 49.19411 4.12909 34905 ft 516 kts 96°
2026-05-05 04:50 49.19293 4.18397 34018 ft 520 kts 97°
2026-05-05 04:50 49.19233 4.23964 33141 ft 522 kts 94°
2026-05-05 04:51 49.19572 4.29430 31966 ft 515 kts 82°
2026-05-05 04:51 49.20730 4.34603 30656 ft 514 kts 66°
2026-05-05 04:51 49.22681 4.39126 29437 ft 508 kts 50°
2026-05-05 04:51 49.25308 4.42599 28799 ft 487 kts 32°
2026-05-05 04:52 49.28298 4.44709 28640 ft 469 kts 14°
2026-05-05 04:52 49.31499 4.45442 28500 ft 462 kts 356°
2026-05-05 04:52 49.34688 4.45118 28355 ft 460 kts 353°
2026-05-05 04:52 49.37863 4.45069 28221 ft 463 kts 360°
2026-05-05 04:53 49.41129 4.45347 28093 ft 463 kts
2026-05-05 04:53 49.44294 4.45398 27948 ft 460 kts 354°
2026-05-05 04:53 49.47454 4.44800 27825 ft 454 kts 343°
2026-05-05 04:53 49.50450 4.43377 27686 ft 446 kts 332°
2026-05-05 04:54 49.53162 4.41154 27554 ft 438 kts 321°
2026-05-05 04:54 49.55494 4.38224 27438 ft 428 kts 309°
2026-05-05 04:54 49.57355 4.34736 27285 ft 419 kts 297°
2026-05-05 04:54 49.58703 4.30809 27171 ft 409 kts 286°
2026-05-05 04:55 49.59487 4.26656 27050 ft 401 kts 275°
2026-05-05 04:55 49.59726 4.22414 26910 ft 394 kts 265°
2026-05-05 04:55 49.59718 4.18196 26783 ft 394 kts 265°
2026-05-05 04:55 49.59696 4.13961 26656 ft 394 kts 265°
2026-05-05 04:56 49.59685 4.09741 26509 ft 394 kts 265°
2026-05-05 04:56 49.59631 4.05588 26369 ft 391 kts 262°
2026-05-05 04:56 49.59184 4.01466 26258 ft 390 kts 250°
2026-05-05 04:56 49.58187 3.97631 26125 ft 381 kts 238°
2026-05-05 04:57 49.56683 3.94313 26007 ft 376 kts 226°
2026-05-05 04:57 49.54737 3.91658 25873 ft 374 kts 214°
2026-05-05 04:57 49.52452 3.89765 25744 ft 374 kts 202°
2026-05-05 04:57 49.49932 3.88720 25619 ft 375 kts 189°
2026-05-05 04:58 49.47346 3.88594 25495 ft 378 kts 178°
2026-05-05 04:58 49.44758 3.89413 25370 ft 383 kts 165°
2026-05-05 04:58 49.42346 3.91190 25243 ft 389 kts 151°
2026-05-05 04:58 49.40253 3.93859 25121 ft 396 kts 137°
2026-05-05 04:59 49.38623 3.97306 24990 ft 404 kts 123°
2026-05-05 04:59 49.37580 4.01337 24871 ft 412 kts 109°
2026-05-05 04:59 49.37220 4.05730 24743 ft 419 kts 94°
2026-05-05 04:59 49.37347 4.10226 24630 ft 421 kts 90°
2026-05-05 05:00 49.37542 4.14699 24504 ft 421 kts 90°
2026-05-05 05:00 49.37719 4.19178 24387 ft 420 kts 91°
2026-05-05 05:00 49.37929 4.23674 24267 ft 422 kts 87°
2026-05-05 05:00 49.38619 4.28070 24134 ft 427 kts 72°
2026-05-05 05:01 49.40058 4.32074 24024 ft 432 kts 54°
2026-05-05 05:01 49.42143 4.35308 23917 ft 434 kts 38°
2026-05-05 05:01 49.43861 4.36990 23830 ft 435 kts 27°
2026-05-05 05:01 49.47663 4.38805 23680 ft 432 kts
2026-05-05 05:02 49.50635 4.38750 23571 ft 426 kts 348°
2026-05-05 05:02 49.53454 4.37486 23447 ft 419 kts 332°
2026-05-05 05:03 49.59553 4.25626 22939 ft 385 kts 275°
2026-05-05 05:03 49.59662 4.24404 22911 ft 383 kts 271°
2026-05-05 05:03 49.59707 4.16246 22646 ft 377 kts 265°
2026-05-05 05:04 49.59701 4.14894 22587 ft 373 kts 265°
2026-05-05 05:04 49.59684 4.09619 22211 ft 363 kts 266°
2026-05-05 05:04 49.59633 4.07064 22056 ft 353 kts 260°
2026-05-05 05:04 49.58006 4.01665 21715 ft 327 kts 231°
2026-05-05 05:05 49.56660 3.98889 21512 ft 319 kts 231°
2026-05-05 05:05 49.55399 3.96185 21069 ft 304 kts 232°
2026-05-05 05:05 49.54309 3.93757 20402 ft 301 kts 233°
2026-05-05 05:05 49.53146 3.91103 19644 ft 299 kts 234°
2026-05-05 05:06 49.52008 3.88460 19070 ft 291 kts 234°
2026-05-05 05:06 49.50921 3.85913 18749 ft 277 kts 234°
2026-05-05 05:06 49.49890 3.83489 18475 ft 264 kts 235°
2026-05-05 05:06 49.48895 3.81148 18241 ft 262 kts 235°
2026-05-05 05:07 49.47910 3.78785 17966 ft 264 kts 238°
2026-05-05 05:07 49.47185 3.76192 17681 ft 265 kts 251°
2026-05-05 05:07 49.46701 3.73445 17372 ft 265 kts 253°
2026-05-05 05:07 49.46258 3.70734 17059 ft 266 kts 253°
2026-05-05 05:08 49.45801 3.67960 16772 ft 267 kts 253°
2026-05-05 05:08 49.45341 3.65201 16467 ft 267 kts 253°
2026-05-05 05:08 49.44877 3.62428 16151 ft 267 kts 253°
2026-05-05 05:08 49.44416 3.59668 15856 ft 267 kts 253°
2026-05-05 05:09 49.43942 3.56879 15755 ft 274 kts 253°
2026-05-05 05:09 49.43490 3.54229 15655 ft 279 kts 253°
2026-05-05 05:09 49.43035 3.51557 15522 ft 280 kts 254°
2026-05-05 05:09 49.42548 3.48698 15401 ft 279 kts 254°
2026-05-05 05:10 49.42046 3.45822 15240 ft 279 kts 252°
2026-05-05 05:10 49.41392 3.43030 15133 ft 277 kts 247°
2026-05-05 05:10 49.40659 3.40283 14992 ft 277 kts 246°
2026-05-05 05:10 49.40227 3.38683 14920 ft 277 kts 246°
2026-05-05 05:11 49.39494 3.35958 14791 ft 276 kts 246°
2026-05-05 05:11 49.38759 3.33223 14658 ft 276 kts 246°
2026-05-05 05:11 49.38027 3.30499 14535 ft 276 kts 247°
2026-05-05 05:11 49.37300 3.27790 14403 ft 275 kts 247°
2026-05-05 05:12 49.36572 3.25081 14274 ft 275 kts 247°
2026-05-05 05:12 49.35842 3.22366 14150 ft 275 kts 247°
2026-05-05 05:12 49.35114 3.19665 14016 ft 274 kts 247°
2026-05-05 05:12 49.34384 3.16957 13888 ft 274 kts 247°
2026-05-05 05:13 49.33900 3.15162 13806 ft 274 kts 247°
2026-05-05 05:13 49.32935 3.11588 13625 ft 274 kts 247°
2026-05-05 05:13 49.32207 3.08897 13487 ft 273 kts 246°
2026-05-05 05:13 49.31478 3.06201 13367 ft 273 kts 246°
2026-05-05 05:14 49.30748 3.03508 13234 ft 273 kts 246°
2026-05-05 05:14 49.30021 3.00828 13112 ft 273 kts 246°
2026-05-05 05:14 49.29292 2.98146 12979 ft 272 kts 246°
2026-05-05 05:14 49.28563 2.95469 12843 ft 272 kts 246°
2026-05-05 05:15 49.27835 2.92795 12732 ft 271 kts 246°
2026-05-05 05:15 49.27106 2.90121 12599 ft 271 kts 246°
2026-05-05 05:15 49.26380 2.87461 12467 ft 271 kts 246°
2026-05-05 05:15 49.25654 2.84806 12351 ft 270 kts 246°
2026-05-05 05:16 49.25417 2.83938 12302 ft 270 kts 246°
2026-05-05 05:16 49.25039 2.82557 12255 ft 270 kts 246°
2026-05-05 05:16 49.24585 2.80897 12156 ft 269 kts 246°
2026-05-05 05:16 49.23846 2.78200 12031 ft 269 kts 246°
2026-05-05 05:17 49.23121 2.75560 11898 ft 269 kts 246°
2026-05-05 05:17 49.22397 2.72923 11766 ft 269 kts 246°
2026-05-05 05:17 49.21669 2.70274 11649 ft 268 kts 246°
2026-05-05 05:17 49.20945 2.67646 11518 ft 268 kts 246°
2026-05-05 05:18 49.20467 2.65910 11434 ft 268 kts 246°
2026-05-05 05:18 49.19507 2.62429 11259 ft 268 kts 246°
2026-05-05 05:18 49.18784 2.59812 11142 ft 267 kts 246°
2026-05-05 05:18 49.18175 2.57135 11019 ft 268 kts 257°
2026-05-05 05:19 49.17995 2.54292 10901 ft 268 kts 267°
2026-05-05 05:19 49.17948 2.51440 10716 ft 268 kts 267°
2026-05-05 05:19 49.17902 2.48594 10526 ft 268 kts 267°
2026-05-05 05:19 49.17849 2.45744 10332 ft 267 kts 267°
2026-05-05 05:20 49.17790 2.42899 10153 ft 267 kts 267°
2026-05-05 05:20 49.17730 2.40061 9953 ft 266 kts 266°
2026-05-05 05:20 49.17689 2.38185 9826 ft 266 kts 266°
2026-05-05 05:20 49.17572 2.34439 9569 ft 265 kts 263°
2026-05-05 05:21 49.17446 2.32589 9440 ft 264 kts 262°
2026-05-05 05:21 49.17305 2.30708 9306 ft 264 kts 262°
2026-05-05 05:21 49.16786 2.23311 8820 ft 262 kts 263°
2026-05-05 05:22 49.16663 2.21482 8692 ft 261 kts 263°
2026-05-05 05:22 49.16479 2.18714 8498 ft 261 kts 263°
2026-05-05 05:22 49.16336 2.16890 8377 ft 260 kts 260°
2026-05-05 05:24 49.06468 2.12672 7191 ft 252 kts 174°
2026-05-05 05:24 49.05878 2.12756 7135 ft 252 kts 174°
2026-05-05 05:24 49.05286 2.12839 7075 ft 251 kts 174°
2026-05-05 05:25 48.98494 2.14160 6472 ft 211 kts 151°
2026-05-05 05:25 48.97490 2.15632 6340 ft 201 kts 120°
2026-05-05 05:25 48.97194 2.18432 6203 ft 206 kts 86°
2026-05-05 05:26 48.97240 2.19164 6136 ft 207 kts 84°
2026-05-05 05:26 48.97442 2.22056 5779 ft 205 kts 85°
2026-05-05 05:26 48.97564 2.24225 5415 ft 207 kts 86°
2026-05-05 05:26 48.97641 2.25680 5160 ft 209 kts 86°
2026-05-05 05:27 48.97756 2.27851 4749 ft 202 kts 86°
2026-05-05 05:27 48.97903 2.30640 4202 ft 197 kts 85°
2026-05-05 05:27 48.98084 2.34044 3531 ft 191 kts 85°
2026-05-05 05:28 48.98120 2.34720 3396 ft 190 kts 85°
2026-05-05 05:28 48.98333 2.38686 2656 ft 182 kts 85°
2026-05-05 05:28 48.98367 2.39320 2569 ft 177 kts 84°
2026-05-05 05:28 48.98400 2.39929 2488 ft 174 kts 85°
2026-05-05 05:29 48.98616 2.43974 1981 ft 154 kts 83°
2026-05-05 05:29 48.98701 2.45563 1772 ft 147 kts 83°
2026-05-05 05:29 48.98729 2.46079 1710 ft 144 kts 83°
2026-05-05 05:29 48.98782 2.47070 1573 ft 138 kts 83°
2026-05-05 05:30 48.98933 2.49890 1222 ft 134 kts 83°
2026-05-05 05:30 48.98984 2.50840 1096 ft 133 kts 84°
2026-05-05 05:30 48.99083 2.52692 876 ft 133 kts 84°
2026-05-05 05:30 48.99157 2.54087 693 ft 131 kts 83°
2026-05-05 05:31 48.99230 2.55474 540 ft 133 kts 81°
2026-05-05 05:31 48.99284 2.56404 414 ft 132 kts 82°
2026-05-05 05:31 48.99380 2.58196 359 ft 106 kts 85°
2026-05-05 05:31 48.99413 2.58863 365 ft 30 kts 85°
2026-05-05 05:32 48.99442 2.59167 364 ft 28 kts 72°
2026-05-05 05:32 48.99503 2.59367 366 ft 11 kts 64°
2026-05-05 05:32 48.99541 2.59486 365 ft 14 kts 64°
2026-05-05 05:32 48.99583 2.59622 366 ft 15 kts 66°
2026-05-05 05:33 48.99653 2.59693 362 ft 13 kts
2026-05-05 05:33 48.99741 2.59688 362 ft 13 kts 357°
2026-05-05 05:33 48.99840 2.59676 367 ft 15 kts 356°
2026-05-05 05:33 48.99943 2.59665 367 ft 16 kts 355°
2026-05-05 05:34 49.00054 2.59636 369 ft 16 kts 334°
2026-05-05 05:34 49.00079 2.59490 363 ft 16 kts 266°
2026-05-05 05:34 49.00064 2.59318 366 ft 17 kts 265°
2026-05-05 05:34 49.00055 2.59118 365 ft 20 kts 266°
2026-05-05 05:35 49.00046 2.58909 363 ft 16 kts 265°
2026-05-05 05:35 49.00087 2.58775 366 ft 15 kts 341°
2026-05-05 05:35 49.00203 2.58759 360 ft 18 kts 356°
2026-05-05 05:35 49.00286 2.58727 368 ft 6 kts 312°
2026-05-05 05:36 49.00288 2.58677 366 ft 6 kts 272°
2026-05-05 05:36 49.00287 2.58639 365 ft 0 kts 267°
2026-05-05 05:36 49.00286 2.58626 363 ft 3 kts 265°
2026-05-05 05:36 49.00286 2.58612 361 ft 1 kts 266°
2026-05-05 05:37 49.00286 2.58610 361 ft 0 kts 265°